| time (UTC) | temp F | wind direction | speed MPH | gust MPH | rain 1hr in | rain 24hr in | rain mn in | humidity % | barometer mb |
| 20260510174055 | 88 | 59 | 0.0 | 2.0 | 0.00 | 0.00 | 0.00 | 70 | 1005.0 |
| 20260510173950 | 88 | 59 | 1.0 | 2.0 | 0.00 | 0.00 | 0.00 | 70 | 1005.0 |
| 20260510173832 | 88 | 65 | 1.0 | 2.0 | 0.00 | 0.00 | 0.00 | 71 | 1005.0 |
| 20260510173731 | 88 | 169 | 1.0 | 2.0 | 0.00 | 0.00 | 0.00 | 71 | 1005.0 |
| 20260510173633 | 88 | 238 | 1.0 | 2.0 | 0.00 | 0.00 | 0.00 | 71 | 1005.0 |
| 20260510173530 | 88 | 238 | 1.0 | 2.0 | 0.00 | 0.00 | 0.00 | 71 | 1005.0 |
| 20260510173431 | 88 | 238 | 1.0 | 2.0 | 0.00 | 0.00 | 0.00 | 71 | 1005.0 |
| 20260510173331 | 88 | 0 | 0.0 | 4.0 | 0.00 | 0.00 | 0.00 | 70 | 1005.0 |
| 20260510173231 | 88 | 200 | 0.0 | 4.0 | 0.00 | 0.00 | 0.00 | 71 | 1005.1 |
| 20260510173133 | 87 | 200 | 1.0 | 4.0 | 0.00 | 0.00 | 0.00 | 70 | 1005.1 |
| 20260510173031 | 87 | 200 | 1.0 | 4.0 | 0.00 | 0.00 | 0.00 | 70 | 1005.1 |
| 20260510172932 | 87 | 203 | 0.0 | 4.0 | 0.00 | 0.00 | 0.00 | 71 | 1005.1 |
| 20260510172831 | 87 | 206 | 0.0 | 4.0 | 0.00 | 0.00 | 0.00 | 70 | 1005.2 |
| 20260510172732 | 86 | 206 | 1.0 | 4.0 | 0.00 | 0.00 | 0.00 | 71 | 1005.2 |
| 20260510172633 | 86 | 213 | 1.0 | 4.0 | 0.00 | 0.00 | 0.00 | 71 | 1005.2 |
| 20260510172526 | 86 | 307 | 1.0 | 4.0 | 0.00 | 0.00 | 0.00 | 72 | 1005.2 |
| 20260510172415 | 86 | 292 | 1.0 | 3.0 | 0.00 | 0.00 | 0.00 | 73 | 1005.3 |
| 20260510172313 | 86 | 203 | 1.0 | 2.0 | 0.00 | 0.00 | 0.00 | 73 | 1005.3 |
| 20260510172215 | 86 | 233 | 0.0 | 2.0 | 0.00 | 0.00 | 0.00 | 74 | 1005.3 |
| 20260510172115 | 86 | 223 | 1.0 | 2.0 | 0.00 | 0.00 | 0.00 | 72 | 1005.3 |
| 20260510172014 | 86 | 223 | 0.0 | 2.0 | 0.00 | 0.00 | 0.00 | 72 | 1005.3 |
| 20260510171914 | 86 | 223 | 0.0 | 2.0 | 0.00 | 0.00 | 0.00 | 71 | 1005.2 |
| 20260510171814 | 86 | 223 | 1.0 | 2.0 | 0.00 | 0.00 | 0.00 | 71 | 1005.3 |
| 20260510171712 | 86 | 223 | 1.0 | 2.0 | 0.00 | 0.00 | 0.00 | 71 | 1005.3 |
| 20260510171612 | 87 | 238 | 1.0 | 2.0 | 0.00 | 0.00 | 0.00 | 71 | 1005.3 |
| 20260510171514 | 87 | 272 | 1.0 | 3.0 | 0.00 | 0.00 | 0.00 | 71 | 1005.4 |
| 20260510171414 | 87 | 271 | 0.0 | 3.0 | 0.00 | 0.00 | 0.00 | 73 | 1005.3 |
| 20260510171313 | 87 | 221 | 0.0 | 3.0 | 0.00 | 0.00 | 0.00 | 73 | 1005.4 |
| 20260510171214 | 86 | 223 | 1.0 | 3.0 | 0.00 | 0.00 | 0.00 | 71 | 1005.4 |
| 20260510171113 | 86 | 223 | 1.0 | 3.0 | 0.00 | 0.00 | 0.00 | 71 | 1005.4 |
| 20260510171014 | 86 | 278 | 1.0 | 3.0 | 0.00 | 0.00 | 0.00 | 71 | 1005.4 |
| 20260510170912 | 86 | 202 | 1.0 | 3.0 | 0.00 | 0.00 | 0.00 | 72 | 1005.5 |
| 20260510170814 | 86 | 192 | 0.0 | 3.0 | 0.00 | 0.00 | 0.00 | 72 | 1005.5 |
| 20260510170713 | 86 | 317 | 1.0 | 3.0 | 0.00 | 0.00 | 0.00 | 72 | 1005.4 |
| 20260510170613 | 86 | 317 | 1.0 | 3.0 | 0.00 | 0.00 | 0.00 | 72 | 1005.4 |
| 20260510170514 | 86 | 254 | 0.0 | 2.0 | 0.00 | 0.00 | 0.00 | 72 | 1005.5 |
| 20260510170412 | 86 | 254 | 1.0 | 2.0 | 0.00 | 0.00 | 0.00 | 72 | 1005.4 |
| 20260510170312 | 86 | 254 | 1.0 | 2.0 | 0.00 | 0.00 | 0.00 | 72 | 1005.4 |
| 20260510170213 | 86 | 130 | 0.0 | 2.0 | 0.00 | 0.00 | 0.00 | 72 | 1005.5 |
| 20260510170113 | 86 | 354 | 0.0 | 2.0 | 0.00 | 0.00 | 0.00 | 72 | 1005.4 |
| 20260510170014 | 86 | 354 | 1.0 | 2.0 | 0.00 | 0.00 | 0.00 | 71 | 1005.4 |
| 20260510165912 | 86 | 354 | 1.0 | 2.0 | 0.00 | 0.00 | 0.00 | 71 | 1005.5 |
| 20260510165813 | 86 | 351 | 1.0 | 2.0 | 0.00 | 0.00 | 0.00 | 72 | 1005.5 |
| 20260510165713 | 86 | 61 | 0.0 | 2.0 | 0.00 | 0.00 | 0.00 | 72 | 1005.5 |
| 20260510165614 | 87 | 0 | 0.0 | 2.0 | 0.00 | 0.00 | 0.00 | 74 | 1005.5 |
| 20260510165513 | 87 | 341 | 1.0 | 2.0 | 0.00 | 0.00 | 0.00 | 74 | 1005.6 |
| 20260510165413 | 87 | 341 | 1.0 | 2.0 | 0.00 | 0.00 | 0.00 | 74 | 1005.6 |
| 20260510165313 | 87 | 341 | 0.0 | 2.0 | 0.00 | 0.00 | 0.00 | 74 | 1005.5 |
| 20260510165213 | 86 | 343 | 0.0 | 2.0 | 0.00 | 0.00 | 0.00 | 74 | 1005.6 |
| 20260510165112 | 86 | 343 | 0.0 | 2.0 | 0.00 | 0.00 | 0.00 | 72 | 1005.6 |
| 20260510165012 | 86 | 353 | 0.0 | 2.0 | 0.00 | 0.00 | 0.00 | 72 | 1005.6 |
| 20260510164914 | 86 | 0 | 0.0 | 2.0 | 0.00 | 0.00 | 0.00 | 72 | 1005.6 |
| 20260510164813 | 86 | 0 | 0.0 | 2.0 | 0.00 | 0.00 | 0.00 | 72 | 1005.6 |
| 20260510164713 | 86 | 0 | 1.0 | 3.0 | 0.00 | 0.00 | 0.00 | 72 | 1005.7 |
| 20260510164612 | 86 | 312 | 0.0 | 3.0 | 0.00 | 0.00 | 0.00 | 73 | 1005.6 |
| 20260510164513 | 86 | 312 | 0.0 | 3.0 | 0.00 | 0.00 | 0.00 | 72 | 1005.6 |
| 20260510164413 | 86 | 237 | 1.0 | 3.0 | 0.00 | 0.00 | 0.00 | 72 | 1005.7 |
| 20260510164312 | 86 | 286 | 0.0 | 3.0 | 0.00 | 0.00 | 0.00 | 72 | 1005.6 |
| 20260510164212 | 86 | 271 | 0.0 | 3.0 | 0.00 | 0.00 | 0.00 | 72 | 1005.6 |
| 20260510164113 | 86 | 278 | 1.0 | 3.0 | 0.00 | 0.00 | 0.00 | 72 | 1005.7 |
| 20260510164013 | 85 | 278 | 1.0 | 3.0 | 0.00 | 0.00 | 0.00 | 71 | 1005.7 |
| 20260510163912 | 86 | 231 | 1.0 | 3.0 | 0.00 | 0.00 | 0.00 | 71 | 1005.7 |
| 20260510163814 | 86 | 0 | 0.0 | 3.0 | 0.00 | 0.00 | 0.00 | 74 | 1005.7 |
| 20260510163707 | 85 | 268 | 0.0 | 2.0 | 0.00 | 0.00 | 0.00 | 74 | 1005.7 |
| 20260510163603 | 85 | 272 | 0.0 | 3.0 | 0.00 | 0.00 | 0.00 | 74 | 1005.7 |
| 20260510163505 | 85 | 272 | 0.0 | 3.0 | 0.00 | 0.00 | 0.00 | 74 | 1005.7 |
| 20260510163403 | 85 | 166 | 0.0 | 3.0 | 0.00 | 0.00 | 0.00 | 74 | 1005.7 |
| 20260510163303 | 85 | 169 | 1.0 | 3.0 | 0.00 | 0.00 | 0.00 | 74 | 1005.8 |
| 20260510163203 | 85 | 169 | 1.0 | 3.0 | 0.00 | 0.00 | 0.00 | 73 | 1005.7 |
| 20260510163102 | 85 | 168 | 1.0 | 3.0 | 0.00 | 0.00 | 0.00 | 74 | 1005.9 |
| 20260510163002 | 85 | 168 | 1.0 | 3.0 | 0.00 | 0.00 | 0.00 | 75 | 1005.8 |
| 20260510162902 | 85 | 269 | 1.0 | 3.0 | 0.00 | 0.00 | 0.00 | 75 | 1005.9 |
| 20260510162802 | 84 | 271 | 1.0 | 3.0 | 0.00 | 0.00 | 0.00 | 75 | 1005.9 |
| 20260510162702 | 84 | 355 | 1.0 | 3.0 | 0.00 | 0.00 | 0.00 | 75 | 1006.0 |
| 20260510162601 | 84 | 134 | 1.0 | 3.0 | 0.00 | 0.00 | 0.00 | 74 | 1005.9 |
| 20260510162502 | 84 | 134 | 1.0 | 3.0 | 0.00 | 0.00 | 0.00 | 74 | 1005.9 |
| 20260510162404 | 84 | 137 | 1.0 | 3.0 | 0.00 | 0.00 | 0.00 | 74 | 1005.9 |
| 20260510162305 | 85 | 107 | 1.0 | 3.0 | 0.00 | 0.00 | 0.00 | 74 | 1005.9 |
| 20260510162204 | 85 | 107 | 1.0 | 3.0 | 0.00 | 0.00 | 0.00 | 73 | 1005.8 |
| 20260510162103 | 85 | 62 | 1.0 | 3.0 | 0.00 | 0.00 | 0.00 | 73 | 1005.8 |
| 20260510162004 | 85 | 48 | 0.0 | 3.0 | 0.00 | 0.00 | 0.00 | 74 | 1005.8 |
| 20260510161902 | 84 | 125 | 0.0 | 3.0 | 0.00 | 0.00 | 0.00 | 74 | 1005.9 |
| 20260510161802 | 84 | 125 | 1.0 | 3.0 | 0.00 | 0.00 | 0.00 | 74 | 1005.9 |
| 20260510161703 | 84 | 125 | 1.0 | 3.0 | 0.00 | 0.00 | 0.00 | 74 | 1005.9 |
| 20260510161603 | 84 | 209 | 1.0 | 3.0 | 0.00 | 0.00 | 0.00 | 74 | 1005.9 |
| 20260510161504 | 84 | 209 | 1.0 | 3.0 | 0.00 | 0.00 | 0.00 | 73 | 1006.0 |
| 20260510161403 | 84 | 261 | 1.0 | 3.0 | 0.00 | 0.00 | 0.00 | 73 | 1006.0 |
| 20260510161302 | 84 | 231 | 0.0 | 3.0 | 0.00 | 0.00 | 0.00 | 73 | 1006.0 |
| 20260510161202 | 84 | 347 | 1.0 | 3.0 | 0.00 | 0.00 | 0.00 | 73 | 1006.0 |
| 20260510161102 | 84 | 343 | 1.0 | 3.0 | 0.00 | 0.00 | 0.00 | 73 | 1006.1 |
| 20260510161002 | 84 | 330 | 1.0 | 3.0 | 0.00 | 0.00 | 0.00 | 73 | 1006.1 |
| 20260510160903 | 84 | 334 | 1.0 | 3.0 | 0.00 | 0.00 | 0.00 | 73 | 1006.0 |
| 20260510160804 | 84 | 175 | 0.0 | 2.0 | 0.00 | 0.00 | 0.00 | 74 | 1006.1 |
| 20260510160704 | 84 | 175 | 0.0 | 2.0 | 0.00 | 0.00 | 0.00 | 73 | 1006.1 |
| 20260510160602 | 84 | 175 | 1.0 | 2.0 | 0.00 | 0.00 | 0.00 | 75 | 1006.1 |
| 20260510160502 | 84 | 175 | 1.0 | 2.0 | 0.00 | 0.00 | 0.00 | 75 | 1006.1 |
| 20260510160403 | 85 | 161 | 1.0 | 2.0 | 0.00 | 0.00 | 0.00 | 75 | 1006.1 |
| 20260510160304 | 84 | 175 | 0.0 | 2.0 | 0.00 | 0.00 | 0.00 | 75 | 1006.1 |
| 20260510160203 | 84 | 278 | 0.0 | 2.0 | 0.00 | 0.00 | 0.00 | 75 | 1006.1 |
| 20260510160002 | 84 | 282 | 1.0 | 2.0 | 0.00 | 0.00 | 0.00 | 75 | 1006.0 |
| 20260510155903 | 84 | 313 | 1.0 | 2.0 | 0.00 | 0.00 | 0.00 | 74 | 1006.1 |
| 20260510155804 | 84 | 261 | 0.0 | 2.0 | 0.00 | 0.00 | 0.00 | 74 | 1006.1 |
| 20260510155703 | 84 | 282 | 0.0 | 3.0 | 0.00 | 0.00 | 0.00 | 75 | 1006.1 |
| 20260510155602 | 84 | 176 | 0.0 | 3.0 | 0.00 | 0.00 | 0.00 | 75 | 1006.1 |
| 20260510155502 | 84 | 258 | 0.0 | 3.0 | 0.00 | 0.00 | 0.00 | 75 | 1006.1 |
| 20260510155403 | 83 | 258 | 0.0 | 3.0 | 0.00 | 0.00 | 0.00 | 75 | 1006.1 |
| 20260510155305 | 84 | 255 | 0.0 | 3.0 | 0.00 | 0.00 | 0.00 | 75 | 1006.1 |
| 20260510155203 | 83 | 255 | 1.0 | 3.0 | 0.00 | 0.00 | 0.00 | 74 | 1006.1 |
| 20260510155102 | 83 | 255 | 1.0 | 3.0 | 0.00 | 0.00 | 0.00 | 74 | 1006.1 |
| 20260510155002 | 83 | 255 | 1.0 | 3.0 | 0.00 | 0.00 | 0.00 | 74 | 1006.0 |
| 20260510154904 | 83 | 321 | 1.0 | 3.0 | 0.00 | 0.00 | 0.00 | 74 | 1006.1 |
| 20260510154802 | 83 | 327 | 1.0 | 3.0 | 0.00 | 0.00 | 0.00 | 74 | 1006.2 |
| 20260510154704 | 83 | 4 | 1.0 | 3.0 | 0.00 | 0.00 | 0.00 | 74 | 1006.2 |
| 20260510154602 | 83 | 323 | 1.0 | 3.0 | 0.00 | 0.00 | 0.00 | 75 | 1006.2 |
| 20260510154504 | 83 | 324 | 1.0 | 3.0 | 0.00 | 0.00 | 0.00 | 75 | 1006.2 |
| 20260510154403 | 83 | 324 | 2.0 | 3.0 | 0.00 | 0.00 | 0.00 | 75 | 1006.2 |
| 20260510154302 | 83 | 326 | 1.0 | 2.0 | 0.00 | 0.00 | 0.00 | 75 | 1006.2 |
| 20260510154203 | 83 | 145 | 1.0 | 2.0 | 0.00 | 0.00 | 0.00 | 75 | 1006.2 |
| 20260510154102 | 83 | 138 | 1.0 | 2.0 | 0.00 | 0.00 | 0.00 | 75 | 1006.1 |
| 20260510154002 | 83 | 183 | 0.0 | 2.0 | 0.00 | 0.00 | 0.00 | 75 | 1006.2 |
| 20260510153902 | 83 | 183 | 0.0 | 3.0 | 0.00 | 0.00 | 0.00 | 76 | 1006.2 |
| 20260510153803 | 83 | 182 | 0.0 | 3.0 | 0.00 | 0.00 | 0.00 | 75 | 1006.3 |
| 20260510153702 | 83 | 247 | 0.0 | 3.0 | 0.00 | 0.00 | 0.00 | 75 | 1006.2 |
| 20260510153603 | 83 | 247 | 1.0 | 3.0 | 0.00 | 0.00 | 0.00 | 77 | 1006.3 |
| 20260510153504 | 83 | 302 | 0.0 | 3.0 | 0.00 | 0.00 | 0.00 | 77 | 1006.3 |
| 20260510153402 | 83 | 251 | 0.0 | 3.0 | 0.00 | 0.00 | 0.00 | 77 | 1006.2 |
| 20260510153303 | 83 | 251 | 0.0 | 3.0 | 0.00 | 0.00 | 0.00 | 77 | 1006.3 |
| 20260510153202 | 83 | 251 | 1.0 | 3.0 | 0.00 | 0.00 | 0.00 | 77 | 1006.3 |
| 20260510153103 | 82 | 289 | 1.0 | 3.0 | 0.00 | 0.00 | 0.00 | 76 | 1006.3 |
| 20260510153004 | 82 | 306 | 1.0 | 3.0 | 0.00 | 0.00 | 0.00 | 76 | 1006.3 |
| 20260510152903 | 82 | 303 | 0.0 | 3.0 | 0.00 | 0.00 | 0.00 | 76 | 1006.3 |
| 20260510152804 | 82 | 303 | 0.0 | 3.0 | 0.00 | 0.00 | 0.00 | 77 | 1006.3 |
| 20260510152703 | 82 | 303 | 0.0 | 3.0 | 0.00 | 0.00 | 0.00 | 76 | 1006.3 |
| 20260510152603 | 82 | 303 | 0.0 | 3.0 | 0.00 | 0.00 | 0.00 | 76 | 1006.3 |
| 20260510152504 | 82 | 303 | 0.0 | 3.0 | 0.00 | 0.00 | 0.00 | 77 | 1006.3 |
| 20260510152403 | 82 | 310 | 1.0 | 3.0 | 0.00 | 0.00 | 0.00 | 77 | 1006.4 |
| 20260510152306 | 82 | 310 | 1.0 | 3.0 | 0.00 | 0.00 | 0.00 | 77 | 1006.3 |
| 20260510152202 | 82 | 345 | 1.0 | 2.0 | 0.00 | 0.00 | 0.00 | 77 | 1006.4 |
| 20260510152104 | 82 | 345 | 1.0 | 2.0 | 0.00 | 0.00 | 0.00 | 77 | 1006.3 |
| 20260510152002 | 82 | 285 | 0.0 | 2.0 | 0.00 | 0.00 | 0.00 | 77 | 1006.3 |
| 20260510151902 | 81 | 285 | 0.0 | 2.0 | 0.00 | 0.00 | 0.00 | 77 | 1006.3 |
| 20260510151803 | 81 | 285 | 0.0 | 2.0 | 0.00 | 0.00 | 0.00 | 77 | 1006.4 |
| 20260510151702 | 81 | 283 | 0.0 | 2.0 | 0.00 | 0.00 | 0.00 | 77 | 1006.3 |
| 20260510151602 | 81 | 292 | 0.0 | 2.0 | 0.00 | 0.00 | 0.00 | 78 | 1006.3 |
| 20260510151503 | 81 | 149 | 1.0 | 2.0 | 0.00 | 0.00 | 0.00 | 78 | 1006.3 |
| 20260510151403 | 81 | 149 | 1.0 | 2.0 | 0.00 | 0.00 | 0.00 | 80 | 1006.3 |
| 20260510151302 | 81 | 314 | 0.0 | 2.0 | 0.00 | 0.00 | 0.00 | 80 | 1006.3 |
| 20260510151202 | 81 | 313 | 0.0 | 1.0 | 0.00 | 0.00 | 0.00 | 80 | 1006.4 |
| 20260510151102 | 81 | 312 | 0.0 | 1.0 | 0.00 | 0.00 | 0.00 | 79 | 1006.3 |
| 20260510151003 | 81 | 312 | 0.0 | 1.0 | 0.00 | 0.00 | 0.00 | 79 | 1006.3 |
| 20260510150902 | 81 | 312 | 0.0 | 1.0 | 0.00 | 0.00 | 0.00 | 79 | 1006.3 |
| 20260510150803 | 81 | 312 | 0.0 | 1.0 | 0.00 | 0.00 | 0.00 | 79 | 1006.3 |
| 20260510150702 | 81 | 312 | 0.0 | 1.0 | 0.00 | 0.00 | 0.00 | 79 | 1006.3 |
| 20260510150602 | 80 | 312 | 0.0 | 1.0 | 0.00 | 0.00 | 0.00 | 79 | 1006.4 |
| 20260510150503 | 80 | 355 | 0.0 | 0.0 | 0.00 | 0.00 | 0.00 | 79 | 1006.4 |
| 20260510150403 | 80 | 358 | 0.0 | 0.0 | 0.00 | 0.00 | 0.00 | 79 | 1006.4 |
| 20260510150303 | 80 | 358 | 0.0 | 1.0 | 0.00 | 0.00 | 0.00 | 79 | 1006.4 |
| 20260510150203 | 80 | 358 | 0.0 | 1.0 | 0.00 | 0.00 | 0.00 | 80 | 1006.5 |
| 20260510150103 | 80 | 358 | 0.0 | 1.0 | 0.00 | 0.00 | 0.00 | 80 | 1006.5 |
| 20260510150003 | 80 | 0 | 0.0 | 1.0 | 0.00 | 0.00 | 0.00 | 80 | 1006.5 |
| 20260510145902 | 80 | 0 | 0.0 | 1.0 | 0.00 | 0.00 | 0.00 | 80 | 1006.5 |
| 20260510145802 | 80 | 0 | 0.0 | 1.0 | 0.00 | 0.00 | 0.00 | 81 | 1006.5 |
| 20260510145703 | 80 | 0 | 0.0 | 1.0 | 0.00 | 0.00 | 0.00 | 81 | 1006.6 |
| 20260510145604 | 80 | 0 | 0.0 | 1.0 | 0.00 | 0.00 | 0.00 | 82 | 1006.6 |
| 20260510145504 | 80 | 38 | 0.0 | 1.0 | 0.00 | 0.00 | 0.00 | 82 | 1006.5 |
| 20260510145403 | 79 | 149 | 0.0 | 1.0 | 0.00 | 0.00 | 0.00 | 82 | 1006.6 |
| 20260510145306 | 79 | 204 | 0.0 | 1.0 | 0.00 | 0.00 | 0.00 | 82 | 1006.6 |
| 20260510145203 | 79 | 203 | 0.0 | 1.0 | 0.00 | 0.00 | 0.00 | 82 | 1006.6 |
| 20260510145104 | 79 | 203 | 0.0 | 1.0 | 0.00 | 0.00 | 0.00 | 82 | 1006.6 |
| 20260510145005 | 79 | 203 | 0.0 | 1.0 | 0.00 | 0.00 | 0.00 | 83 | 1006.6 |
| 20260510144904 | 79 | 203 | 0.0 | 1.0 | 0.00 | 0.00 | 0.00 | 83 | 1006.5 |
| 20260510144802 | 79 | 202 | 0.0 | 2.0 | 0.00 | 0.00 | 0.00 | 82 | 1006.6 |
| 20260510144702 | 79 | 202 | 0.0 | 2.0 | 0.00 | 0.00 | 0.00 | 83 | 1006.5 |
| 20260510144605 | 78 | 202 | 0.0 | 2.0 | 0.00 | 0.00 | 0.00 | 83 | 1006.6 |
| 20260510144504 | 78 | 202 | 0.0 | 2.0 | 0.00 | 0.00 | 0.00 | 84 | 1006.5 |
| 20260510144403 | 78 | 202 | 0.0 | 2.0 | 0.00 | 0.00 | 0.00 | 84 | 1006.5 |
| 20260510144304 | 78 | 262 | 0.0 | 2.0 | 0.00 | 0.00 | 0.00 | 84 | 1006.6 |
| 20260510144208 | 78 | 262 | 0.0 | 2.0 | 0.00 | 0.00 | 0.00 | 84 | 1006.5 |
| 20260510144102 | 78 | 261 | 0.0 | 2.0 | 0.00 | 0.00 | 0.00 | 85 | 1006.5 |
| 20260510144004 | 78 | 285 | 0.0 | 2.0 | 0.00 | 0.00 | 0.00 | 85 | 1006.5 |
| 20260510143904 | 77 | 285 | 0.0 | 2.0 | 0.00 | 0.00 | 0.00 | 85 | 1006.6 |
| 20260510143802 | 77 | 313 | 0.0 | 2.0 | 0.00 | 0.00 | 0.00 | 85 | 1006.5 |
| 20260510143702 | 77 | 209 | 0.0 | 2.0 | 0.00 | 0.00 | 0.00 | 85 | 1006.5 |
| 20260510143603 | 77 | 221 | 0.0 | 2.0 | 0.00 | 0.00 | 0.00 | 86 | 1006.5 |
| 20260510143504 | 77 | 228 | 0.0 | 2.0 | 0.00 | 0.00 | 0.00 | 86 | 1006.5 |
| 20260510143402 | 77 | 228 | 0.0 | 2.0 | 0.00 | 0.00 | 0.00 | 86 | 1006.5 |
| 20260510143304 | 77 | 228 | 1.0 | 2.0 | 0.00 | 0.00 | 0.00 | 86 | 1006.5 |
| 20260510143203 | 77 | 196 | 1.0 | 2.0 | 0.00 | 0.00 | 0.00 | 86 | 1006.5 |
| 20260510143101 | 77 | 107 | 0.0 | 1.0 | 0.00 | 0.00 | 0.00 | 86 | 1006.5 |
| 20260510143002 | 77 | 106 | 0.0 | 1.0 | 0.00 | 0.00 | 0.00 | 87 | 1006.5 |
| 20260510142902 | 76 | 106 | 0.0 | 2.0 | 0.00 | 0.00 | 0.00 | 87 | 1006.5 |
| 20260510142805 | 76 | 100 | 0.0 | 2.0 | 0.00 | 0.00 | 0.00 | 87 | 1006.6 |
| 20260510142702 | 76 | 100 | 0.0 | 3.0 | 0.00 | 0.00 | 0.00 | 87 | 1006.5 |
| 20260510142602 | 76 | 100 | 0.0 | 3.0 | 0.00 | 0.00 | 0.00 | 88 | 1006.5 |
| 20260510142503 | 76 | 97 | 0.0 | 3.0 | 0.00 | 0.00 | 0.00 | 88 | 1006.5 |
| 20260510142402 | 76 | 94 | 0.0 | 3.0 | 0.00 | 0.00 | 0.00 | 88 | 1006.5 |
| 20260510142305 | 76 | 93 | 0.0 | 3.0 | 0.00 | 0.00 | 0.00 | 88 | 1006.5 |
| 20260510142202 | 76 | 93 | 0.0 | 3.0 | 0.00 | 0.00 | 0.00 | 88 | 1006.5 |
| 20260510142105 | 75 | 93 | 0.0 | 3.0 | 0.00 | 0.00 | 0.00 | 88 | 1006.5 |
| 20260510142001 | 75 | 93 | 1.0 | 3.0 | 0.00 | 0.00 | 0.00 | 88 | 1006.5 |
| 20260510141902 | 75 | 38 | 1.0 | 3.0 | 0.00 | 0.00 | 0.00 | 88 | 1006.6 |
| 20260510141802 | 75 | 329 | 1.0 | 3.0 | 0.00 | 0.00 | 0.00 | 89 | 1006.6 |
| 20260510141702 | 75 | 73 | 1.0 | 2.0 | 0.00 | 0.00 | 0.00 | 89 | 1006.5 |
| 20260510141602 | 75 | 298 | 1.0 | 2.0 | 0.00 | 0.00 | 0.00 | 89 | 1006.5 |
| 20260510141504 | 75 | 299 | 1.0 | 2.0 | 0.00 | 0.00 | 0.00 | 89 | 1006.6 |
| 20260510141402 | 75 | 261 | 1.0 | 2.0 | 0.00 | 0.00 | 0.00 | 89 | 1006.5 |
| 20260510141303 | 75 | 261 | 1.0 | 2.0 | 0.00 | 0.00 | 0.00 | 89 | 1006.6 |
| 20260510141205 | 75 | 299 | 1.0 | 2.0 | 0.00 | 0.00 | 0.00 | 89 | 1006.5 |
| 20260510141101 | 75 | 299 | 1.0 | 2.0 | 0.00 | 0.00 | 0.00 | 89 | 1006.6 |
| 20260510141005 | 75 | 86 | 1.0 | 2.0 | 0.00 | 0.00 | 0.00 | 89 | 1006.5 |
| 20260510140903 | 75 | 86 | 1.0 | 2.0 | 0.00 | 0.00 | 0.00 | 89 | 1006.5 |
| 20260510140803 | 75 | 296 | 0.0 | 2.0 | 0.00 | 0.00 | 0.00 | 89 | 1006.5 |
| 20260510140704 | 74 | 296 | 0.0 | 2.0 | 0.00 | 0.00 | 0.00 | 89 | 1006.5 |
| 20260510140604 | 74 | 296 | 0.0 | 2.0 | 0.00 | 0.00 | 0.00 | 89 | 1006.5 |
| 20260510140502 | 74 | 296 | 1.0 | 2.0 | 0.00 | 0.00 | 0.00 | 89 | 1006.5 |
| 20260510140403 | 74 | 296 | 1.0 | 2.0 | 0.00 | 0.00 | 0.00 | 89 | 1006.4 |
| 20260510140305 | 74 | 296 | 1.0 | 2.0 | 0.00 | 0.00 | 0.00 | 89 | 1006.5 |
| 20260510140210 | 74 | 296 | 0.0 | 2.0 | 0.00 | 0.00 | 0.00 | 89 | 1006.5 |
| 20260510140002 | 74 | 220 | 0.0 | 2.0 | 0.00 | 0.00 | 0.00 | 89 | 1006.4 |
| 20260510135902 | 74 | 219 | 0.0 | 2.0 | 0.00 | 0.00 | 0.00 | 89 | 1006.5 |
| 20260510135802 | 74 | 219 | 1.0 | 2.0 | 0.00 | 0.00 | 0.00 | 89 | 1006.5 |
| 20260510135704 | 74 | 219 | 1.0 | 2.0 | 0.00 | 0.00 | 0.00 | 89 | 1006.5 |
| 20260510135603 | 74 | 214 | 1.0 | 2.0 | 0.00 | 0.00 | 0.00 | 89 | 1006.5 |
| 20260510135502 | 74 | 240 | 1.0 | 1.0 | 0.00 | 0.00 | 0.00 | 89 | 1006.5 |
| 20260510135404 | 74 | 338 | 0.0 | 1.0 | 0.00 | 0.00 | 0.00 | 89 | 1006.5 |
| 20260510135305 | 74 | 338 | 0.0 | 1.0 | 0.00 | 0.00 | 0.00 | 89 | 1006.5 |
| 20260510135202 | 74 | 338 | 0.0 | 1.0 | 0.00 | 0.00 | 0.00 | 89 | 1006.4 |
| 20260510135104 | 74 | 337 | 0.0 | 1.0 | 0.00 | 0.00 | 0.00 | 89 | 1006.4 |
| 20260510135003 | 74 | 337 | 0.0 | 1.0 | 0.00 | 0.00 | 0.00 | 89 | 1006.5 |
| 20260510134902 | 74 | 336 | 0.0 | 1.0 | 0.00 | 0.00 | 0.00 | 89 | 1006.4 |
| 20260510134802 | 74 | 341 | 0.0 | 1.0 | 0.00 | 0.00 | 0.00 | 89 | 1006.4 |
| 20260510134702 | 74 | 341 | 0.0 | 2.0 | 0.00 | 0.00 | 0.00 | 89 | 1006.4 |
| 20260510134603 | 74 | 341 | 0.0 | 3.0 | 0.00 | 0.00 | 0.00 | 89 | 1006.4 |
| 20260510134502 | 74 | 330 | 0.0 | 3.0 | 0.00 | 0.00 | 0.00 | 89 | 1006.4 |
| 20260510134402 | 74 | 327 | 0.0 | 3.0 | 0.00 | 0.00 | 0.00 | 89 | 1006.4 |
| 20260510134302 | 74 | 330 | 1.0 | 3.0 | 0.00 | 0.00 | 0.00 | 89 | 1006.4 |
| 20260510134204 | 74 | 333 | 0.0 | 3.0 | 0.00 | 0.00 | 0.00 | 89 | 1006.4 |
| 20260510134103 | 74 | 333 | 0.0 | 3.0 | 0.00 | 0.00 | 0.00 | 89 | 1006.4 |
| 20260510134004 | 74 | 333 | 0.0 | 3.0 | 0.00 | 0.00 | 0.00 | 89 | 1006.4 |
| 20260510133902 | 74 | 333 | 0.0 | 3.0 | 0.00 | 0.00 | 0.00 | 89 | 1006.5 |
| 20260510133803 | 74 | 333 | 1.0 | 3.0 | 0.00 | 0.00 | 0.00 | 89 | 1006.5 |
| 20260510133708 | 74 | 336 | 1.0 | 3.0 | 0.00 | 0.00 | 0.00 | 89 | 1006.4 |
| 20260510133603 | 74 | 212 | 0.0 | 1.0 | 0.00 | 0.00 | 0.00 | 89 | 1006.4 |
| 20260510133502 | 74 | 219 | 0.0 | 1.0 | 0.00 | 0.00 | 0.00 | 89 | 1006.4 |
| 20260510133402 | 74 | 219 | 0.0 | 1.0 | 0.00 | 0.00 | 0.00 | 89 | 1006.4 |
| 20260510133303 | 74 | 219 | 0.0 | 1.0 | 0.00 | 0.00 | 0.00 | 89 | 1006.3 |
| 20260510133203 | 74 | 219 | 0.0 | 1.0 | 0.00 | 0.00 | 0.00 | 89 | 1006.3 |
| 20260510133102 | 74 | 219 | 0.0 | 1.0 | 0.00 | 0.00 | 0.00 | 89 | 1006.3 |
| 20260510133003 | 74 | 219 | 0.0 | 1.0 | 0.00 | 0.00 | 0.00 | 89 | 1006.3 |
| 20260510132901 | 74 | 219 | 0.0 | 0.0 | 0.00 | 0.00 | 0.00 | 89 | 1006.3 |
| 20260510132802 | 74 | 219 | 0.0 | 1.0 | 0.00 | 0.00 | 0.00 | 89 | 1006.2 |
| 20260510132703 | 74 | 219 | 0.0 | 2.0 | 0.00 | 0.00 | 0.00 | 89 | 1006.3 |
| 20260510132603 | 74 | 219 | 0.0 | 2.0 | 0.00 | 0.00 | 0.00 | 89 | 1006.1 |
| 20260510132502 | 74 | 219 | 0.0 | 2.0 | 0.00 | 0.00 | 0.00 | 89 | 1006.1 |
| 20260510132403 | 74 | 219 | 0.0 | 2.0 | 0.00 | 0.00 | 0.00 | 89 | 1006.1 |
| 20260510132306 | 74 | 219 | 0.0 | 2.0 | 0.00 | 0.00 | 0.00 | 89 | 1006.0 |
| 20260510132203 | 74 | 219 | 0.0 | 2.0 | 0.00 | 0.00 | 0.00 | 89 | 1006.0 |
| 20260510132103 | 74 | 219 | 0.0 | 2.0 | 0.00 | 0.00 | 0.00 | 89 | 1006.0 |
| 20260510132004 | 74 | 219 | 0.0 | 2.0 | 0.00 | 0.00 | 0.00 | 89 | 1005.9 |
| 20260510131902 | 73 | 219 | 0.0 | 2.0 | 0.00 | 0.00 | 0.00 | 89 | 1005.9 |
| 20260510131803 | 73 | 219 | 0.0 | 2.0 | 0.00 | 0.00 | 0.00 | 89 | 1005.9 |
| 20260510131702 | 73 | 219 | 0.0 | 0.0 | 0.00 | 0.00 | 0.00 | 89 | 1005.9 |
| 20260510131607 | 73 | 219 | 0.0 | 0.0 | 0.00 | 0.00 | 0.00 | 89 | 1005.8 |
| 20260510131504 | 73 | 219 | 0.0 | 0.0 | 0.00 | 0.00 | 0.00 | 89 | 1005.8 |
| 20260510131403 | 73 | 219 | 0.0 | 0.0 | 0.00 | 0.00 | 0.00 | 89 | 1005.7 |
| 20260510131302 | 73 | 219 | 0.0 | 0.0 | 0.00 | 0.00 | 0.00 | 89 | 1005.7 |
| 20260510131203 | 73 | 219 | 0.0 | 0.0 | 0.00 | 0.00 | 0.00 | 89 | 1005.7 |
| 20260510131102 | 73 | 219 | 0.0 | 0.0 | 0.00 | 0.00 | 0.00 | 89 | 1005.6 |
| 20260510131003 | 73 | 219 | 0.0 | 0.0 | 0.00 | 0.00 | 0.00 | 89 | 1005.6 |
| 20260510130902 | 73 | 219 | 0.0 | 0.0 | 0.00 | 0.00 | 0.00 | 89 | 1005.6 |
| 20260510130803 | 73 | 219 | 0.0 | 1.0 | 0.00 | 0.00 | 0.00 | 89 | 1005.6 |
| 20260510130702 | 73 | 219 | 0.0 | 1.0 | 0.00 | 0.00 | 0.00 | 89 | 1005.5 |
| 20260510130602 | 73 | 219 | 0.0 | 1.0 | 0.00 | 0.00 | 0.00 | 89 | 1005.5 |
| 20260510130503 | 73 | 219 | 0.0 | 1.0 | 0.00 | 0.00 | 0.00 | 89 | 1005.4 |
| 20260510130402 | 73 | 219 | 0.0 | 1.0 | 0.00 | 0.00 | 0.00 | 89 | 1005.4 |
| 20260510130302 | 73 | 219 | 0.0 | 1.0 | 0.00 | 0.00 | 0.00 | 89 | 1005.4 |
| 20260510130203 | 73 | 219 | 0.0 | 1.0 | 0.00 | 0.00 | 0.00 | 89 | 1005.5 |
| 20260510130002 | 73 | 219 | 0.0 | 1.0 | 0.00 | 0.00 | 0.00 | 89 | 1005.3 |
| 20260510125902 | 73 | 219 | 0.0 | 1.0 | 0.00 | 0.00 | 0.00 | 89 | 1005.3 |
| 20260510125802 | 73 | 219 | 0.0 | 0.0 | 0.00 | 0.00 | 0.00 | 89 | 1005.3 |
| 20260510125709 | 73 | 219 | 0.0 | 0.0 | 0.00 | 0.00 | 0.00 | 89 | 1005.3 |
| 20260510125603 | 73 | 219 | 0.0 | 0.0 | 0.00 | 0.00 | 0.00 | 89 | 1005.3 |
| 20260510125502 | 73 | 219 | 0.0 | 0.0 | 0.00 | 0.00 | 0.00 | 89 | 1005.3 |
| 20260510125403 | 73 | 219 | 0.0 | 0.0 | 0.00 | 0.00 | 0.00 | 89 | 1005.3 |
| 20260510125306 | 73 | 219 | 0.0 | 0.0 | 0.00 | 0.00 | 0.00 | 89 | 1005.3 |
| 20260510125203 | 73 | 219 | 0.0 | 0.0 | 0.00 | 0.00 | 0.00 | 89 | 1005.2 |
| 20260510125108 | 73 | 219 | 0.0 | 0.0 | 0.00 | 0.00 | 0.00 | 89 | 1005.2 |
| 20260510125003 | 73 | 219 | 0.0 | 0.0 | 0.00 | 0.00 | 0.00 | 89 | 1005.2 |
| 20260510124902 | 73 | 219 | 0.0 | 0.0 | 0.00 | 0.00 | 0.00 | 89 | 1005.2 |
| 20260510124803 | 73 | 219 | 0.0 | 0.0 | 0.00 | 0.00 | 0.00 | 89 | 1005.2 |
| 20260510124704 | 73 | 219 | 0.0 | 0.0 | 0.00 | 0.00 | 0.00 | 89 | 1005.2 |
| 20260510124602 | 73 | 219 | 0.0 | 0.0 | 0.00 | 0.00 | 0.00 | 89 | 1005.2 |
| 20260510124503 | 73 | 219 | 0.0 | 0.0 | 0.00 | 0.00 | 0.00 | 89 | 1005.1 |
| 20260510124404 | 73 | 219 | 0.0 | 0.0 | 0.00 | 0.00 | 0.00 | 89 | 1005.2 |
| 20260510124302 | 73 | 219 | 0.0 | 0.0 | 0.00 | 0.00 | 0.00 | 89 | 1005.1 |
| 20260510124202 | 73 | 219 | 0.0 | 0.0 | 0.00 | 0.00 | 0.00 | 89 | 1005.1 |
| 20260510124104 | 73 | 219 | 0.0 | 0.0 | 0.00 | 0.00 | 0.00 | 89 | 1005.1 |
| 20260510124002 | 73 | 219 | 0.0 | 0.0 | 0.00 | 0.00 | 0.00 | 89 | 1005.1 |
| 20260510123903 | 73 | 219 | 0.0 | 0.0 | 0.00 | 0.00 | 0.00 | 89 | 1005.1 |
| 20260510123804 | 73 | 219 | 0.0 | 0.0 | 0.00 | 0.00 | 0.00 | 89 | 1005.1 |
| 20260510123702 | 73 | 219 | 0.0 | 0.0 | 0.00 | 0.00 | 0.00 | 89 | 1005.1 |
| 20260510123606 | 73 | 219 | 0.0 | 0.0 | 0.00 | 0.00 | 0.00 | 88 | 1005.1 |
| 20260510123503 | 73 | 219 | 0.0 | 0.0 | 0.00 | 0.00 | 0.00 | 89 | 1005.0 |
| 20260510123404 | 73 | 219 | 0.0 | 0.0 | 0.00 | 0.00 | 0.00 | 89 | 1005.0 |
| 20260510123302 | 73 | 219 | 0.0 | 0.0 | 0.00 | 0.00 | 0.00 | 89 | 1005.0 |
| 20260510123200 | 73 | 219 | 0.0 | 0.0 | 0.00 | 0.00 | 0.00 | 88 | 1005.0 |
| 20260510123100 | 73 | 219 | 0.0 | 0.0 | 0.00 | 0.00 | 0.00 | 88 | 1005.0 |
| 20260510123000 | 73 | 219 | 0.0 | 0.0 | 0.00 | 0.00 | 0.00 | 88 | 1005.0 |
| 20260510122900 | 73 | 219 | 0.0 | 0.0 | 0.00 | 0.00 | 0.00 | 88 | 1005.0 |
| 20260510122755 | 73 | 219 | 0.0 | 0.0 | 0.00 | 0.00 | 0.00 | 88 | 1004.9 |
| 20260510122656 | 73 | 219 | 0.0 | 0.0 | 0.00 | 0.00 | 0.00 | 88 | 1004.9 |
| 20260510122552 | 72 | 219 | 0.0 | 0.0 | 0.00 | 0.00 | 0.00 | 88 | 1004.9 |
| 20260510122449 | 72 | 219 | 0.0 | 0.0 | 0.00 | 0.00 | 0.00 | 88 | 1004.9 |
| 20260510122347 | 72 | 219 | 0.0 | 0.0 | 0.00 | 0.00 | 0.00 | 88 | 1004.9 |
| 20260510122244 | 72 | 219 | 0.0 | 0.0 | 0.00 | 0.00 | 0.00 | 88 | 1004.8 |
| 20260510122139 | 72 | 219 | 0.0 | 0.0 | 0.00 | 0.00 | 0.00 | 88 | 1004.9 |
| 20260510122036 | 72 | 219 | 0.0 | 0.0 | 0.00 | 0.00 | 0.00 | 88 | 1004.9 |
| 20260510121932 | 72 | 219 | 0.0 | 0.0 | 0.00 | 0.00 | 0.00 | 88 | 1004.9 |
| 20260510121831 | 72 | 219 | 0.0 | 0.0 | 0.00 | 0.00 | 0.00 | 88 | 1004.9 |
| 20260510121731 | 72 | 219 | 0.0 | 0.0 | 0.00 | 0.00 | 0.00 | 88 | 1004.9 |
| 20260510121631 | 72 | 219 | 0.0 | 0.0 | 0.00 | 0.00 | 0.00 | 88 | 1004.8 |
| 20260510121532 | 72 | 219 | 0.0 | 0.0 | 0.00 | 0.00 | 0.00 | 88 | 1004.8 |
| 20260510121433 | 72 | 219 | 0.0 | 0.0 | 0.00 | 0.00 | 0.00 | 88 | 1004.8 |
| 20260510121325 | 72 | 219 | 0.0 | 0.0 | 0.00 | 0.00 | 0.00 | 88 | 1004.7 |
| 20260510121226 | 72 | 219 | 0.0 | 0.0 | 0.00 | 0.00 | 0.00 | 88 | 1004.7 |
| 20260510121125 | 72 | 219 | 0.0 | 0.0 | 0.00 | 0.00 | 0.00 | 88 | 1004.7 |
| 20260510121024 | 72 | 219 | 0.0 | 0.0 | 0.00 | 0.00 | 0.00 | 88 | 1004.7 |
| 20260510120925 | 72 | 219 | 0.0 | 0.0 | 0.00 | 0.00 | 0.00 | 88 | 1004.7 |
| 20260510120826 | 72 | 219 | 0.0 | 0.0 | 0.00 | 0.00 | 0.00 | 88 | 1004.6 |
| 20260510120721 | 72 | 219 | 0.0 | 0.0 | 0.00 | 0.00 | 0.00 | 88 | 1004.7 |
| 20260510120619 | 72 | 219 | 0.0 | 0.0 | 0.00 | 0.00 | 0.00 | 88 | 1004.6 |
| 20260510120519 | 72 | 219 | 0.0 | 0.0 | 0.00 | 0.00 | 0.00 | 88 | 1004.6 |
| 20260510120414 | 72 | 219 | 0.0 | 0.0 | 0.00 | 0.00 | 0.00 | 88 | 1004.7 |
| 20260510120313 | 72 | 219 | 0.0 | 0.0 | 0.00 | 0.00 | 0.00 | 88 | 1004.6 |
| 20260510120213 | 72 | 219 | 0.0 | 0.0 | 0.00 | 0.00 | 0.00 | 88 | 1004.6 |
| 20260510120108 | 72 | 219 | 0.0 | 0.0 | 0.00 | 0.00 | 0.00 | 88 | 1004.6 |
| 20260510120005 | 72 | 219 | 0.0 | 0.0 | 0.00 | 0.00 | 0.00 | 88 | 1004.6 |
| 20260510115905 | 72 | 219 | 0.0 | 0.0 | 0.00 | 0.00 | 0.00 | 88 | 1004.7 |
| 20260510115806 | 72 | 219 | 0.0 | 0.0 | 0.00 | 0.00 | 0.00 | 88 | 1004.6 |
| 20260510115708 | 72 | 219 | 0.0 | 0.0 | 0.00 | 0.00 | 0.00 | 88 | 1004.6 |
| 20260510115605 | 72 | 219 | 0.0 | 0.0 | 0.00 | 0.00 | 0.00 | 88 | 1004.5 |
| 20260510115505 | 72 | 219 | 0.0 | 0.0 | 0.00 | 0.00 | 0.00 | 88 | 1004.5 |
| 20260510115406 | 72 | 219 | 0.0 | 0.0 | 0.00 | 0.00 | 0.00 | 88 | 1004.4 |
| 20260510115306 | 72 | 219 | 0.0 | 0.0 | 0.00 | 0.00 | 0.00 | 88 | 1004.4 |
| 20260510115208 | 72 | 219 | 0.0 | 0.0 | 0.00 | 0.00 | 0.00 | 88 | 1004.4 |
| 20260510115106 | 72 | 219 | 0.0 | 1.0 | 0.00 | 0.00 | 0.00 | 88 | 1004.4 |
| 20260510115005 | 72 | 219 | 0.0 | 1.0 | 0.00 | 0.00 | 0.00 | 88 | 1004.3 |
| 20260510114905 | 72 | 219 | 0.0 | 1.0 | 0.00 | 0.00 | 0.00 | 88 | 1004.2 |
| 20260510114805 | 72 | 219 | 0.0 | 1.0 | 0.00 | 0.00 | 0.00 | 88 | 1004.2 |
| 20260510114705 | 72 | 219 | 0.0 | 1.0 | 0.00 | 0.00 | 0.00 | 88 | 1004.2 |
| 20260510114605 | 72 | 219 | 0.0 | 1.0 | 0.00 | 0.00 | 0.00 | 88 | 1004.2 |
| 20260510114505 | 72 | 219 | 0.0 | 1.0 | 0.00 | 0.00 | 0.00 | 88 | 1004.2 |
| 20260510114405 | 72 | 219 | 0.0 | 1.0 | 0.00 | 0.00 | 0.00 | 88 | 1004.2 |
| 20260510114305 | 72 | 219 | 0.0 | 1.0 | 0.00 | 0.00 | 0.00 | 88 | 1004.1 |
| 20260510114207 | 72 | 219 | 0.0 | 1.0 | 0.00 | 0.00 | 0.00 | 88 | 1004.1 |
| 20260510114105 | 72 | 219 | 0.0 | 0.0 | 0.00 | 0.00 | 0.00 | 88 | 1004.1 |
| 20260510114006 | 72 | 219 | 0.0 | 0.0 | 0.00 | 0.00 | 0.00 | 88 | 1004.1 |
| 20260510113905 | 72 | 219 | 0.0 | 1.0 | 0.00 | 0.00 | 0.00 | 88 | 1004.1 |
| 20260510113808 | 72 | 219 | 0.0 | 1.0 | 0.00 | 0.00 | 0.00 | 88 | 1004.1 |
| 20260510113707 | 72 | 219 | 0.0 | 1.0 | 0.00 | 0.00 | 0.00 | 88 | 1004.1 |
| 20260510113605 | 72 | 219 | 0.0 | 1.0 | 0.00 | 0.00 | 0.00 | 88 | 1004.1 |
| 20260510113508 | 72 | 219 | 0.0 | 1.0 | 0.00 | 0.00 | 0.00 | 88 | 1004.1 |
| 20260510113405 | 72 | 219 | 0.0 | 1.0 | 0.00 | 0.00 | 0.00 | 88 | 1004.2 |
| 20260510113305 | 72 | 219 | 0.0 | 1.0 | 0.00 | 0.00 | 0.00 | 88 | 1004.1 |
| 20260510113207 | 72 | 219 | 0.0 | 1.0 | 0.00 | 0.00 | 0.00 | 88 | 1004.1 |
| 20260510113105 | 72 | 219 | 0.0 | 1.0 | 0.00 | 0.00 | 0.00 | 88 | 1004.0 |
| 20260510113005 | 72 | 219 | 0.0 | 1.0 | 0.00 | 0.00 | 0.00 | 88 | 1004.1 |
| 20260510112905 | 72 | 219 | 0.0 | 1.0 | 0.00 | 0.00 | 0.00 | 88 | 1004.0 |
| 20260510112805 | 72 | 219 | 0.0 | 1.0 | 0.00 | 0.00 | 0.00 | 88 | 1004.0 |
| 20260510112704 | 72 | 219 | 0.0 | 1.0 | 0.00 | 0.00 | 0.00 | 88 | 1003.9 |
| 20260510112605 | 72 | 219 | 0.0 | 1.0 | 0.00 | 0.00 | 0.00 | 88 | 1003.9 |
| 20260510112506 | 72 | 219 | 0.0 | 1.0 | 0.00 | 0.00 | 0.00 | 88 | 1003.9 |
| 20260510112404 | 72 | 219 | 0.0 | 1.0 | 0.00 | 0.00 | 0.00 | 88 | 1003.7 |
| 20260510112306 | 72 | 219 | 0.0 | 1.0 | 0.00 | 0.00 | 0.00 | 88 | 1003.8 |
| 20260510112204 | 72 | 219 | 0.0 | 1.0 | 0.00 | 0.00 | 0.00 | 88 | 1003.7 |
| 20260510112106 | 72 | 219 | 0.0 | 1.0 | 0.00 | 0.00 | 0.00 | 88 | 1003.6 |
| 20260510112005 | 72 | 219 | 0.0 | 1.0 | 0.00 | 0.00 | 0.00 | 88 | 1003.6 |
| 20260510111905 | 72 | 219 | 0.0 | 1.0 | 0.00 | 0.00 | 0.00 | 88 | 1003.6 |
| 20260510111805 | 72 | 219 | 0.0 | 1.0 | 0.00 | 0.00 | 0.00 | 88 | 1003.6 |
| 20260510111704 | 72 | 219 | 0.0 | 1.0 | 0.00 | 0.00 | 0.00 | 88 | 1003.5 |
| 20260510111605 | 72 | 219 | 0.0 | 1.0 | 0.00 | 0.00 | 0.00 | 88 | 1003.5 |
| 20260510111506 | 72 | 219 | 0.0 | 1.0 | 0.00 | 0.00 | 0.00 | 88 | 1003.4 |
| 20260510111404 | 72 | 219 | 0.0 | 0.0 | 0.00 | 0.00 | 0.00 | 88 | 1003.4 |
| 20260510111304 | 72 | 219 | 0.0 | 0.0 | 0.00 | 0.00 | 0.00 | 88 | 1003.3 |
| 20260510111204 | 72 | 219 | 0.0 | 0.0 | 0.00 | 0.00 | 0.00 | 88 | 1003.3 |
| 20260510111105 | 72 | 219 | 0.0 | 0.0 | 0.00 | 0.00 | 0.00 | 88 | 1003.2 |
| 20260510111005 | 72 | 219 | 0.0 | 0.0 | 0.00 | 0.00 | 0.00 | 88 | 1003.2 |
| 20260510110904 | 72 | 219 | 0.0 | 0.0 | 0.00 | 0.00 | 0.00 | 88 | 1003.2 |
| 20260510110806 | 72 | 219 | 0.0 | 0.0 | 0.00 | 0.00 | 0.00 | 88 | 1003.2 |
| 20260510110704 | 72 | 219 | 0.0 | 0.0 | 0.00 | 0.00 | 0.00 | 88 | 1003.1 |
| 20260510110604 | 72 | 219 | 0.0 | 0.0 | 0.00 | 0.00 | 0.00 | 88 | 1003.1 |
| 20260510110505 | 72 | 219 | 0.0 | 0.0 | 0.00 | 0.00 | 0.00 | 88 | 1003.1 |
| 20260510110404 | 72 | 219 | 0.0 | 0.0 | 0.00 | 0.00 | 0.00 | 88 | 1003.1 |
| 20260510110304 | 72 | 219 | 0.0 | 0.0 | 0.00 | 0.00 | 0.00 | 88 | 1003.1 |
| 20260510110205 | 72 | 219 | 0.0 | 0.0 | 0.00 | 0.00 | 0.00 | 88 | 1003.1 |
| 20260510110104 | 72 | 219 | 0.0 | 0.0 | 0.00 | 0.00 | 0.00 | 88 | 1003.0 |
| 20260510110005 | 72 | 219 | 0.0 | 0.0 | 0.00 | 0.00 | 0.00 | 88 | 1002.9 |
| 20260510105904 | 72 | 219 | 0.0 | 0.0 | 0.00 | 0.00 | 0.00 | 88 | 1002.9 |
| 20260510105804 | 72 | 219 | 0.0 | 0.0 | 0.00 | 0.00 | 0.00 | 88 | 1002.9 |
| 20260510105708 | 72 | 219 | 0.0 | 0.0 | 0.00 | 0.00 | 0.00 | 88 | 1002.9 |
| 20260510105605 | 72 | 219 | 0.0 | 1.0 | 0.00 | 0.00 | 0.00 | 88 | 1002.8 |
| 20260510105504 | 72 | 219 | 0.0 | 1.0 | 0.00 | 0.00 | 0.00 | 88 | 1002.8 |
| 20260510105404 | 72 | 219 | 0.0 | 1.0 | 0.00 | 0.00 | 0.00 | 88 | 1002.8 |
| 20260510105306 | 72 | 219 | 0.0 | 1.0 | 0.00 | 0.00 | 0.00 | 88 | 1002.8 |
| 20260510105204 | 72 | 219 | 0.0 | 1.0 | 0.00 | 0.00 | 0.00 | 88 | 1002.8 |
| 20260510105105 | 72 | 219 | 0.0 | 1.0 | 0.00 | 0.00 | 0.00 | 88 | 1002.9 |
| 20260510105004 | 72 | 219 | 0.0 | 1.0 | 0.00 | 0.00 | 0.00 | 88 | 1002.8 |
| 20260510104906 | 72 | 219 | 0.0 | 1.0 | 0.00 | 0.00 | 0.00 | 88 | 1002.9 |
| 20260510104804 | 72 | 219 | 0.0 | 1.0 | 0.00 | 0.00 | 0.00 | 88 | 1002.9 |
| 20260510104705 | 72 | 219 | 0.0 | 1.0 | 0.00 | 0.00 | 0.00 | 88 | 1002.9 |
| 20260510104604 | 72 | 219 | 0.0 | 1.0 | 0.00 | 0.00 | 0.00 | 88 | 1002.8 |
| 20260510104505 | 72 | 219 | 0.0 | 1.0 | 0.00 | 0.00 | 0.00 | 88 | 1002.8 |
| 20260510104404 | 72 | 219 | 0.0 | 1.0 | 0.00 | 0.00 | 0.00 | 88 | 1002.8 |
| 20260510104303 | 72 | 219 | 0.0 | 1.0 | 0.00 | 0.00 | 0.00 | 88 | 1002.7 |
| 20260510104203 | 72 | 219 | 0.0 | 1.0 | 0.00 | 0.00 | 0.00 | 88 | 1002.7 |
| 20260510104103 | 72 | 219 | 0.0 | 1.0 | 0.00 | 0.00 | 0.00 | 88 | 1002.7 |
| 20260510104003 | 72 | 219 | 0.0 | 1.0 | 0.00 | 0.00 | 0.00 | 88 | 1002.7 |
| 20260510103903 | 72 | 219 | 0.0 | 1.0 | 0.00 | 0.00 | 0.00 | 88 | 1002.7 |
| 20260510103803 | 72 | 219 | 0.0 | 1.0 | 0.00 | 0.00 | 0.00 | 88 | 1002.7 |
| 20260510103704 | 72 | 219 | 0.0 | 1.0 | 0.00 | 0.00 | 0.00 | 88 | 1002.7 |
| 20260510103602 | 72 | 219 | 0.0 | 1.0 | 0.00 | 0.00 | 0.00 | 88 | 1002.7 |
| 20260510103505 | 72 | 219 | 0.0 | 1.0 | 0.00 | 0.00 | 0.00 | 87 | 1002.7 |
| 20260510103403 | 72 | 219 | 0.0 | 1.0 | 0.00 | 0.00 | 0.00 | 87 | 1002.7 |
| 20260510103304 | 71 | 219 | 0.0 | 1.0 | 0.00 | 0.00 | 0.00 | 87 | 1002.7 |
| 20260510103202 | 71 | 219 | 0.0 | 1.0 | 0.00 | 0.00 | 0.00 | 87 | 1002.7 |
| 20260510103103 | 71 | 219 | 0.0 | 1.0 | 0.00 | 0.00 | 0.00 | 87 | 1002.7 |
| 20260510103004 | 71 | 219 | 0.0 | 1.0 | 0.00 | 0.00 | 0.00 | 87 | 1002.6 |
| 20260510102904 | 71 | 219 | 0.0 | 1.0 | 0.00 | 0.00 | 0.00 | 87 | 1002.6 |
| 20260510102804 | 71 | 219 | 0.0 | 1.0 | 0.00 | 0.00 | 0.00 | 87 | 1002.6 |
| 20260510102703 | 71 | 219 | 0.0 | 1.0 | 0.00 | 0.00 | 0.00 | 87 | 1002.6 |
| 20260510102604 | 71 | 219 | 0.0 | 1.0 | 0.00 | 0.00 | 0.00 | 88 | 1002.6 |
| 20260510102504 | 71 | 219 | 0.0 | 1.0 | 0.00 | 0.00 | 0.00 | 88 | 1002.6 |
| 20260510102403 | 71 | 219 | 0.0 | 1.0 | 0.00 | 0.00 | 0.00 | 88 | 1002.7 |
| 20260510102305 | 71 | 219 | 0.0 | 2.0 | 0.00 | 0.00 | 0.00 | 88 | 1002.6 |
| 20260510102203 | 71 | 219 | 0.0 | 2.0 | 0.00 | 0.00 | 0.00 | 87 | 1002.7 |
| 20260510102104 | 71 | 219 | 0.0 | 2.0 | 0.00 | 0.00 | 0.00 | 87 | 1002.6 |
| 20260510102003 | 71 | 219 | 0.0 | 2.0 | 0.00 | 0.00 | 0.00 | 87 | 1002.7 |
| 20260510101904 | 71 | 219 | 0.0 | 2.0 | 0.00 | 0.00 | 0.00 | 87 | 1002.7 |
| 20260510101803 | 71 | 219 | 0.0 | 2.0 | 0.00 | 0.00 | 0.00 | 87 | 1002.7 |
| 20260510101709 | 71 | 219 | 0.0 | 2.0 | 0.00 | 0.00 | 0.00 | 87 | 1002.7 |
| 20260510101604 | 71 | 219 | 0.0 | 2.0 | 0.00 | 0.00 | 0.00 | 87 | 1002.6 |
| 20260510101504 | 71 | 219 | 0.0 | 2.0 | 0.00 | 0.00 | 0.00 | 87 | 1002.7 |
| 20260510101403 | 71 | 219 | 0.0 | 2.0 | 0.00 | 0.00 | 0.00 | 87 | 1002.7 |
| 20260510101303 | 71 | 216 | 0.0 | 0.0 | 0.00 | 0.00 | 0.00 | 87 | 1002.7 |
| 20260510101204 | 71 | 259 | 0.0 | 0.0 | 0.00 | 0.00 | 0.00 | 87 | 1002.7 |
| 20260510101104 | 71 | 259 | 0.0 | 0.0 | 0.00 | 0.00 | 0.00 | 87 | 1002.8 |
| 20260510101003 | 71 | 259 | 0.0 | 0.0 | 0.00 | 0.00 | 0.00 | 87 | 1002.7 |
| 20260510100903 | 71 | 259 | 0.0 | 1.0 | 0.00 | 0.00 | 0.00 | 87 | 1002.7 |
| 20260510100803 | 71 | 259 | 0.0 | 1.0 | 0.00 | 0.00 | 0.00 | 87 | 1002.7 |
| 20260510100703 | 71 | 259 | 0.0 | 1.0 | 0.00 | 0.00 | 0.00 | 87 | 1002.7 |
| 20260510100603 | 71 | 259 | 0.0 | 1.0 | 0.00 | 0.00 | 0.00 | 87 | 1002.7 |
| 20260510100503 | 70 | 259 | 0.0 | 1.0 | 0.00 | 0.00 | 0.00 | 87 | 1002.7 |
| 20260510100402 | 70 | 259 | 0.0 | 1.0 | 0.00 | 0.00 | 0.00 | 87 | 1002.7 |
| 20260510100304 | 70 | 259 | 0.0 | 1.0 | 0.00 | 0.00 | 0.00 | 87 | 1002.7 |
| 20260510100202 | 70 | 259 | 0.0 | 1.0 | 0.00 | 0.00 | 0.00 | 87 | 1002.7 |
| 20260510100001 | 70 | 259 | 0.0 | 1.0 | 0.00 | 0.00 | 0.00 | 86 | 1002.6 |
| 20260510095900 | 70 | 275 | 0.0 | 1.0 | 0.00 | 0.00 | 0.00 | 86 | 1002.6 |
| 20260510095800 | 70 | 23 | 0.0 | 0.0 | 0.00 | 0.00 | 0.00 | 86 | 1002.7 |
| 20260510095701 | 70 | 23 | 0.0 | 0.0 | 0.00 | 0.00 | 0.00 | 86 | 1002.6 |
| 20260510095603 | 70 | 23 | 0.0 | 0.0 | 0.00 | 0.00 | 0.00 | 86 | 1002.7 |
| 20260510095449 | 70 | 23 | 0.0 | 0.0 | 0.00 | 0.00 | 0.00 | 86 | 1002.6 |
| 20260510095345 | 70 | 23 | 0.0 | 0.0 | 0.00 | 0.00 | 0.00 | 86 | 1002.6 |
| 20260510095245 | 70 | 23 | 0.0 | 0.0 | 0.00 | 0.00 | 0.00 | 86 | 1002.6 |
| 20260510095144 | 70 | 23 | 0.0 | 0.0 | 0.00 | 0.00 | 0.00 | 86 | 1002.5 |
| 20260510095044 | 70 | 23 | 0.0 | 0.0 | 0.00 | 0.00 | 0.00 | 86 | 1002.5 |
| 20260510094940 | 70 | 23 | 0.0 | 0.0 | 0.00 | 0.00 | 0.00 | 86 | 1002.5 |
| 20260510094836 | 70 | 23 | 0.0 | 0.0 | 0.00 | 0.00 | 0.00 | 86 | 1002.5 |
| 20260510094733 | 70 | 23 | 0.0 | 0.0 | 0.00 | 0.00 | 0.00 | 86 | 1002.5 |
| 20260510094634 | 70 | 23 | 0.0 | 0.0 | 0.00 | 0.00 | 0.00 | 86 | 1002.5 |
| 20260510094533 | 70 | 23 | 0.0 | 0.0 | 0.00 | 0.00 | 0.00 | 86 | 1002.5 |
| 20260510094432 | 70 | 23 | 0.0 | 0.0 | 0.00 | 0.00 | 0.00 | 86 | 1002.6 |
| 20260510094330 | 70 | 23 | 0.0 | 0.0 | 0.00 | 0.00 | 0.00 | 86 | 1002.5 |
| 20260510094232 | 70 | 23 | 0.0 | 0.0 | 0.00 | 0.00 | 0.00 | 86 | 1002.5 |
| 20260510094132 | 70 | 23 | 0.0 | 0.0 | 0.00 | 0.00 | 0.00 | 86 | 1002.5 |
| 20260510094022 | 70 | 23 | 0.0 | 0.0 | 0.00 | 0.00 | 0.00 | 86 | 1002.5 |
| 20260510093913 | 70 | 23 | 0.0 | 0.0 | 0.00 | 0.00 | 0.00 | 86 | 1002.5 |
| 20260510093809 | 70 | 23 | 0.0 | 0.0 | 0.00 | 0.00 | 0.00 | 86 | 1002.5 |
| 20260510093703 | 70 | 23 | 0.0 | 0.0 | 0.00 | 0.00 | 0.00 | 86 | 1002.5 |
| 20260510093601 | 70 | 23 | 0.0 | 0.0 | 0.00 | 0.00 | 0.00 | 86 | 1002.5 |
| 20260510093502 | 70 | 23 | 0.0 | 0.0 | 0.00 | 0.00 | 0.00 | 86 | 1002.4 |
| 20260510093355 | 70 | 23 | 0.0 | 0.0 | 0.00 | 0.00 | 0.00 | 86 | 1002.4 |
| 20260510093240 | 70 | 23 | 0.0 | 0.0 | 0.00 | 0.00 | 0.00 | 86 | 1002.4 |
| 20260510093136 | 70 | 23 | 0.0 | 0.0 | 0.00 | 0.00 | 0.00 | 86 | 1002.4 |
| 20260510093032 | 70 | 23 | 0.0 | 0.0 | 0.00 | 0.00 | 0.00 | 86 | 1002.4 |
| 20260510092931 | 70 | 23 | 0.0 | 0.0 | 0.00 | 0.00 | 0.00 | 86 | 1002.4 |
| 20260510092832 | 70 | 23 | 0.0 | 0.0 | 0.00 | 0.00 | 0.00 | 86 | 1002.4 |
| 20260510092732 | 70 | 23 | 0.0 | 0.0 | 0.00 | 0.00 | 0.00 | 86 | 1002.4 |
| 20260510092616 | 70 | 23 | 0.0 | 0.0 | 0.00 | 0.00 | 0.00 | 86 | 1002.3 |
| 20260510092506 | 70 | 23 | 0.0 | 0.0 | 0.00 | 0.00 | 0.00 | 86 | 1002.4 |
| 20260510092405 | 70 | 23 | 0.0 | 0.0 | 0.00 | 0.00 | 0.00 | 86 | 1002.4 |
| 20260510092306 | 70 | 23 | 0.0 | 0.0 | 0.00 | 0.00 | 0.00 | 86 | 1002.3 |
| 20260510092212 | 70 | 23 | 0.0 | 0.0 | 0.00 | 0.00 | 0.00 | 86 | 1002.3 |
| 20260510092105 | 70 | 23 | 0.0 | 0.0 | 0.00 | 0.00 | 0.00 | 86 | 1002.3 |
| 20260510092004 | 70 | 23 | 0.0 | 0.0 | 0.00 | 0.00 | 0.00 | 86 | 1002.3 |
| 20260510091903 | 70 | 23 | 0.0 | 0.0 | 0.00 | 0.00 | 0.00 | 86 | 1002.3 |
| 20260510091805 | 70 | 23 | 0.0 | 0.0 | 0.00 | 0.00 | 0.00 | 86 | 1002.3 |
| 20260510091704 | 70 | 23 | 0.0 | 0.0 | 0.00 | 0.00 | 0.00 | 86 | 1002.3 |
| 20260510091601 | 70 | 23 | 0.0 | 0.0 | 0.00 | 0.00 | 0.00 | 86 | 1002.2 |
| 20260510091503 | 70 | 23 | 0.0 | 0.0 | 0.00 | 0.00 | 0.00 | 86 | 1002.3 |
| 20260510091402 | 70 | 23 | 0.0 | 0.0 | 0.00 | 0.00 | 0.00 | 86 | 1002.3 |
| 20260510091302 | 70 | 23 | 0.0 | 0.0 | 0.00 | 0.00 | 0.00 | 86 | 1002.2 |
| 20260510091203 | 70 | 23 | 0.0 | 0.0 | 0.00 | 0.00 | 0.00 | 86 | 1002.3 |
| 20260510091103 | 70 | 23 | 0.0 | 0.0 | 0.00 | 0.00 | 0.00 | 86 | 1002.2 |
| 20260510091001 | 70 | 23 | 0.0 | 0.0 | 0.00 | 0.00 | 0.00 | 86 | 1002.1 |
| 20260510090858 | 70 | 23 | 0.0 | 0.0 | 0.00 | 0.00 | 0.00 | 86 | 1002.1 |
| 20260510090758 | 70 | 23 | 0.0 | 0.0 | 0.00 | 0.00 | 0.00 | 86 | 1002.1 |
| 20260510090701 | 70 | 23 | 0.0 | 0.0 | 0.00 | 0.00 | 0.00 | 86 | 1002.1 |
| 20260510090552 | 70 | 23 | 0.0 | 0.0 | 0.00 | 0.00 | 0.00 | 86 | 1002.1 |
| 20260510090452 | 70 | 23 | 0.0 | 0.0 | 0.00 | 0.00 | 0.00 | 86 | 1002.1 |
| 20260510090352 | 70 | 23 | 0.0 | 0.0 | 0.00 | 0.00 | 0.00 | 86 | 1002.1 |
| 20260510090250 | 70 | 23 | 0.0 | 0.0 | 0.00 | 0.00 | 0.00 | 86 | 1002.1 |
| 20260510090145 | 70 | 23 | 0.0 | 0.0 | 0.00 | 0.00 | 0.00 | 86 | 1002.2 |
| 20260510090042 | 70 | 23 | 0.0 | 0.0 | 0.00 | 0.00 | 0.00 | 86 | 1002.1 |
| 20260510085935 | 70 | 23 | 0.0 | 0.0 | 0.00 | 0.00 | 0.00 | 86 | 1002.1 |
| 20260510085836 | 70 | 23 | 0.0 | 0.0 | 0.00 | 0.00 | 0.00 | 86 | 1002.2 |
| 20260510085733 | 70 | 23 | 0.0 | 0.0 | 0.00 | 0.00 | 0.00 | 86 | 1002.1 |
| 20260510085631 | 70 | 23 | 0.0 | 0.0 | 0.00 | 0.00 | 0.00 | 86 | 1002.2 |
| 20260510085504 | 70 | 23 | 0.0 | 0.0 | 0.00 | 0.00 | 0.00 | 86 | 1002.2 |
| 20260510085403 | 70 | 23 | 0.0 | 0.0 | 0.00 | 0.00 | 0.00 | 86 | 1002.2 |
| 20260510085306 | 70 | 23 | 0.0 | 0.0 | 0.00 | 0.00 | 0.00 | 86 | 1002.2 |
| 20260510085203 | 70 | 23 | 0.0 | 0.0 | 0.00 | 0.00 | 0.00 | 86 | 1002.1 |
| 20260510085102 | 70 | 23 | 0.0 | 0.0 | 0.00 | 0.00 | 0.00 | 86 | 1002.2 |
| 20260510085003 | 70 | 23 | 0.0 | 0.0 | 0.00 | 0.00 | 0.00 | 86 | 1002.2 |
| 20260510084902 | 70 | 23 | 0.0 | 0.0 | 0.00 | 0.00 | 0.00 | 86 | 1002.2 |
| 20260510084802 | 70 | 23 | 0.0 | 0.0 | 0.00 | 0.00 | 0.00 | 86 | 1002.2 |
| 20260510084703 | 70 | 23 | 0.0 | 0.0 | 0.00 | 0.00 | 0.00 | 86 | 1002.3 |
| 20260510084604 | 70 | 23 | 0.0 | 0.0 | 0.00 | 0.00 | 0.00 | 86 | 1002.3 |
| 20260510084503 | 70 | 23 | 0.0 | 0.0 | 0.00 | 0.00 | 0.00 | 86 | 1002.3 |
| 20260510084403 | 70 | 23 | 0.0 | 0.0 | 0.00 | 0.00 | 0.00 | 86 | 1002.4 |
| 20260510084302 | 70 | 23 | 0.0 | 0.0 | 0.00 | 0.00 | 0.00 | 86 | 1002.4 |
| 20260510084202 | 70 | 23 | 0.0 | 0.0 | 0.00 | 0.00 | 0.00 | 86 | 1002.4 |
| 20260510084102 | 70 | 23 | 0.0 | 0.0 | 0.00 | 0.00 | 0.00 | 86 | 1002.4 |
| 20260510084003 | 70 | 23 | 0.0 | 0.0 | 0.00 | 0.00 | 0.00 | 86 | 1002.4 |
| 20260510083902 | 70 | 23 | 0.0 | 0.0 | 0.00 | 0.00 | 0.00 | 86 | 1002.4 |
| 20260510083803 | 70 | 23 | 0.0 | 0.0 | 0.00 | 0.00 | 0.00 | 86 | 1002.4 |
| 20260510083702 | 70 | 23 | 0.0 | 0.0 | 0.00 | 0.00 | 0.00 | 85 | 1002.4 |
| 20260510083602 | 70 | 23 | 0.0 | 0.0 | 0.00 | 0.00 | 0.00 | 85 | 1002.3 |
| 20260510083503 | 70 | 23 | 0.0 | 0.0 | 0.00 | 0.00 | 0.00 | 85 | 1002.4 |
| 20260510083402 | 70 | 23 | 0.0 | 0.0 | 0.00 | 0.00 | 0.00 | 85 | 1002.4 |
| 20260510083303 | 70 | 23 | 0.0 | 0.0 | 0.00 | 0.00 | 0.00 | 85 | 1002.3 |
| 20260510083202 | 70 | 23 | 0.0 | 0.0 | 0.00 | 0.00 | 0.00 | 85 | 1002.4 |
| 20260510083102 | 70 | 23 | 0.0 | 0.0 | 0.00 | 0.00 | 0.00 | 85 | 1002.4 |
| 20260510083002 | 70 | 23 | 0.0 | 0.0 | 0.00 | 0.00 | 0.00 | 85 | 1002.5 |
| 20260510082902 | 70 | 23 | 0.0 | 0.0 | 0.00 | 0.00 | 0.00 | 85 | 1002.4 |
| 20260510082802 | 70 | 23 | 0.0 | 0.0 | 0.00 | 0.00 | 0.00 | 85 | 1002.4 |
| 20260510082707 | 70 | 23 | 0.0 | 0.0 | 0.00 | 0.00 | 0.00 | 85 | 1002.4 |
| 20260510082602 | 71 | 23 | 0.0 | 0.0 | 0.00 | 0.00 | 0.00 | 85 | 1002.4 |
| 20260510082503 | 71 | 23 | 0.0 | 0.0 | 0.00 | 0.00 | 0.00 | 85 | 1002.4 |
| 20260510082400 | 71 | 23 | 0.0 | 0.0 | 0.00 | 0.00 | 0.00 | 85 | 1002.3 |
| 20260510082301 | 71 | 23 | 0.0 | 0.0 | 0.00 | 0.00 | 0.00 | 85 | 1002.3 |
| 20260510082202 | 71 | 23 | 0.0 | 0.0 | 0.00 | 0.00 | 0.00 | 85 | 1002.3 |
| 20260510082101 | 71 | 23 | 0.0 | 0.0 | 0.00 | 0.00 | 0.00 | 85 | 1002.3 |
| 20260510082001 | 71 | 23 | 0.0 | 0.0 | 0.00 | 0.00 | 0.00 | 85 | 1002.3 |
| 20260510081901 | 71 | 23 | 0.0 | 0.0 | 0.00 | 0.00 | 0.00 | 85 | 1002.4 |
| 20260510081802 | 71 | 23 | 0.0 | 0.0 | 0.00 | 0.00 | 0.00 | 85 | 1002.4 |
| 20260510081701 | 71 | 23 | 0.0 | 0.0 | 0.00 | 0.00 | 0.00 | 85 | 1002.4 |
| 20260510081554 | 71 | 23 | 0.0 | 0.0 | 0.00 | 0.00 | 0.00 | 85 | 1002.4 |
| 20260510081450 | 71 | 23 | 0.0 | 0.0 | 0.00 | 0.00 | 0.00 | 85 | 1002.4 |
| 20260510081349 | 71 | 23 | 0.0 | 0.0 | 0.00 | 0.00 | 0.00 | 85 | 1002.4 |
| 20260510081243 | 71 | 23 | 0.0 | 0.0 | 0.00 | 0.00 | 0.00 | 85 | 1002.4 |
| 20260510081139 | 71 | 23 | 0.0 | 0.0 | 0.00 | 0.00 | 0.00 | 85 | 1002.4 |
| 20260510081036 | 71 | 23 | 0.0 | 0.0 | 0.00 | 0.00 | 0.00 | 85 | 1002.4 |
| 20260510080933 | 71 | 23 | 0.0 | 0.0 | 0.00 | 0.00 | 0.00 | 85 | 1002.4 |
| 20260510080833 | 71 | 23 | 0.0 | 0.0 | 0.00 | 0.00 | 0.00 | 85 | 1002.4 |
| 20260510080730 | 71 | 23 | 0.0 | 0.0 | 0.00 | 0.00 | 0.00 | 85 | 1002.4 |
| 20260510080634 | 71 | 23 | 0.0 | 0.0 | 0.00 | 0.00 | 0.00 | 85 | 1002.4 |
| 20260510080531 | 71 | 23 | 0.0 | 0.0 | 0.00 | 0.00 | 0.00 | 85 | 1002.5 |
| 20260510080432 | 71 | 23 | 0.0 | 0.0 | 0.00 | 0.00 | 0.00 | 85 | 1002.5 |
| 20260510080330 | 71 | 23 | 0.0 | 0.0 | 0.00 | 0.00 | 0.00 | 85 | 1002.4 |
| 20260510080230 | 71 | 23 | 0.0 | 0.0 | 0.00 | 0.00 | 0.00 | 85 | 1002.5 |
| 20260510080131 | 71 | 23 | 0.0 | 0.0 | 0.00 | 0.00 | 0.00 | 85 | 1002.5 |
| 20260510080019 | 71 | 23 | 0.0 | 0.0 | 0.00 | 0.00 | 0.00 | 85 | 1002.5 |
| 20260510075915 | 71 | 23 | 0.0 | 0.0 | 0.00 | 0.00 | 0.00 | 85 | 1002.4 |
| 20260510075811 | 71 | 23 | 0.0 | 0.0 | 0.00 | 0.00 | 0.00 | 85 | 1002.4 |
| 20260510075703 | 71 | 23 | 0.0 | 0.0 | 0.00 | 0.00 | 0.00 | 85 | 1002.5 |
| 20260510075604 | 71 | 23 | 0.0 | 0.0 | 0.00 | 0.00 | 0.00 | 85 | 1002.5 |
| 20260510075501 | 71 | 23 | 0.0 | 0.0 | 0.00 | 0.00 | 0.00 | 85 | 1002.4 |
| 20260510075402 | 71 | 23 | 0.0 | 0.0 | 0.00 | 0.00 | 0.00 | 85 | 1002.4 |
| 20260510075306 | 71 | 23 | 0.0 | 0.0 | 0.00 | 0.00 | 0.00 | 85 | 1002.5 |
| 20260510075203 | 71 | 23 | 0.0 | 0.0 | 0.00 | 0.00 | 0.00 | 85 | 1002.4 |
| 20260510075110 | 71 | 23 | 0.0 | 0.0 | 0.00 | 0.00 | 0.00 | 85 | 1002.4 |
| 20260510075002 | 71 | 23 | 0.0 | 0.0 | 0.00 | 0.00 | 0.00 | 85 | 1002.4 |
| 20260510074902 | 71 | 23 | 0.0 | 0.0 | 0.00 | 0.00 | 0.00 | 85 | 1002.4 |
| 20260510074802 | 71 | 23 | 0.0 | 0.0 | 0.00 | 0.00 | 0.00 | 85 | 1002.4 |
| 20260510074703 | 71 | 23 | 0.0 | 0.0 | 0.00 | 0.00 | 0.00 | 85 | 1002.3 |
| 20260510074602 | 71 | 23 | 0.0 | 0.0 | 0.00 | 0.00 | 0.00 | 85 | 1002.4 |
| 20260510074502 | 71 | 23 | 0.0 | 0.0 | 0.00 | 0.00 | 0.00 | 85 | 1002.4 |
| 20260510074402 | 71 | 23 | 0.0 | 0.0 | 0.00 | 0.00 | 0.00 | 85 | 1002.3 |
| 20260510074304 | 71 | 23 | 0.0 | 0.0 | 0.00 | 0.00 | 0.00 | 85 | 1002.4 |
| 20260510074206 | 71 | 23 | 0.0 | 0.0 | 0.00 | 0.00 | 0.00 | 85 | 1002.4 |
| 20260510074100 | 71 | 23 | 0.0 | 0.0 | 0.00 | 0.00 | 0.00 | 85 | 1002.3 |
| 20260510074000 | 71 | 23 | 0.0 | 0.0 | 0.00 | 0.00 | 0.00 | 85 | 1002.3 |
| 20260510073900 | 71 | 23 | 0.0 | 0.0 | 0.00 | 0.00 | 0.00 | 85 | 1002.3 |
| 20260510073801 | 71 | 23 | 0.0 | 0.0 | 0.00 | 0.00 | 0.00 | 85 | 1002.3 |
| 20260510073701 | 71 | 23 | 0.0 | 0.0 | 0.00 | 0.00 | 0.00 | 85 | 1002.4 |
| 20260510073605 | 71 | 23 | 0.0 | 0.0 | 0.00 | 0.00 | 0.00 | 85 | 1002.3 |
| 20260510073501 | 71 | 23 | 0.0 | 0.0 | 0.00 | 0.00 | 0.00 | 85 | 1002.4 |
| 20260510073359 | 71 | 23 | 0.0 | 0.0 | 0.00 | 0.00 | 0.00 | 85 | 1002.4 |
| 20260510073301 | 71 | 23 | 0.0 | 0.0 | 0.00 | 0.00 | 0.00 | 85 | 1002.4 |
| 20260510073159 | 71 | 23 | 0.0 | 0.0 | 0.00 | 0.00 | 0.00 | 85 | 1002.4 |
| 20260510073059 | 71 | 23 | 0.0 | 0.0 | 0.00 | 0.00 | 0.00 | 85 | 1002.4 |
| 20260510073001 | 71 | 23 | 0.0 | 0.0 | 0.00 | 0.00 | 0.00 | 85 | 1002.4 |
| 20260510072859 | 71 | 23 | 0.0 | 0.0 | 0.00 | 0.00 | 0.00 | 85 | 1002.4 |
| 20260510072800 | 71 | 23 | 0.0 | 0.0 | 0.00 | 0.00 | 0.00 | 85 | 1002.4 |
| 20260510072659 | 71 | 23 | 0.0 | 0.0 | 0.00 | 0.00 | 0.00 | 85 | 1002.4 |
| 20260510072600 | 71 | 23 | 0.0 | 0.0 | 0.00 | 0.00 | 0.00 | 84 | 1002.4 |
| 20260510072500 | 71 | 23 | 0.0 | 0.0 | 0.00 | 0.00 | 0.00 | 84 | 1002.4 |
| 20260510072400 | 71 | 23 | 0.0 | 0.0 | 0.00 | 0.00 | 0.00 | 84 | 1002.4 |
| 20260510072259 | 71 | 23 | 0.0 | 0.0 | 0.00 | 0.00 | 0.00 | 84 | 1002.4 |
| 20260510072159 | 71 | 23 | 0.0 | 0.0 | 0.00 | 0.00 | 0.00 | 84 | 1002.4 |
| 20260510072100 | 71 | 23 | 0.0 | 0.0 | 0.00 | 0.00 | 0.00 | 84 | 1002.3 |
| 20260510072000 | 71 | 23 | 0.0 | 0.0 | 0.00 | 0.00 | 0.00 | 84 | 1002.5 |
| 20260510071900 | 71 | 23 | 0.0 | 0.0 | 0.00 | 0.00 | 0.00 | 84 | 1002.4 |
| 20260510071759 | 71 | 23 | 0.0 | 0.0 | 0.00 | 0.00 | 0.00 | 84 | 1002.4 |
| 20260510071659 | 71 | 23 | 0.0 | 0.0 | 0.00 | 0.00 | 0.00 | 84 | 1002.5 |
| 20260510071559 | 71 | 23 | 0.0 | 0.0 | 0.00 | 0.00 | 0.00 | 84 | 1002.5 |
| 20260510071500 | 71 | 23 | 0.0 | 0.0 | 0.00 | 0.00 | 0.00 | 84 | 1002.4 |
| 20260510071400 | 71 | 23 | 0.0 | 0.0 | 0.00 | 0.00 | 0.00 | 84 | 1002.5 |
| 20260510071259 | 71 | 23 | 0.0 | 0.0 | 0.00 | 0.00 | 0.00 | 84 | 1002.5 |
| 20260510071201 | 71 | 23 | 0.0 | 0.0 | 0.00 | 0.00 | 0.00 | 84 | 1002.5 |
| 20260510071100 | 71 | 23 | 0.0 | 0.0 | 0.00 | 0.00 | 0.00 | 84 | 1002.5 |
| 20260510071001 | 71 | 23 | 0.0 | 0.0 | 0.00 | 0.00 | 0.00 | 84 | 1002.4 |
| 20260510070859 | 71 | 23 | 0.0 | 0.0 | 0.00 | 0.00 | 0.00 | 84 | 1002.5 |
| 20260510070800 | 71 | 23 | 0.0 | 0.0 | 0.00 | 0.00 | 0.00 | 84 | 1002.6 |
| 20260510070700 | 71 | 23 | 0.0 | 0.0 | 0.00 | 0.00 | 0.00 | 84 | 1002.5 |
| 20260510070559 | 71 | 23 | 0.0 | 0.0 | 0.00 | 0.00 | 0.00 | 84 | 1002.6 |
| 20260510070459 | 72 | 23 | 0.0 | 0.0 | 0.00 | 0.00 | 0.00 | 84 | 1002.5 |
| 20260510070359 | 72 | 23 | 0.0 | 0.0 | 0.00 | 0.00 | 0.00 | 84 | 1002.5 |
| 20260510070300 | 72 | 23 | 0.0 | 0.0 | 0.00 | 0.00 | 0.00 | 84 | 1002.5 |
| 20260510070158 | 72 | 23 | 0.0 | 0.0 | 0.00 | 0.00 | 0.00 | 84 | 1002.6 |
| 20260510070100 | 72 | 23 | 0.0 | 0.0 | 0.00 | 0.00 | 0.00 | 84 | 1002.6 |
| 20260510065959 | 72 | 23 | 0.0 | 0.0 | 0.00 | 0.00 | 0.00 | 84 | 1002.6 |
| 20260510065859 | 72 | 23 | 0.0 | 0.0 | 0.00 | 0.00 | 0.00 | 84 | 1002.6 |
| 20260510065759 | 72 | 23 | 0.0 | 0.0 | 0.00 | 0.00 | 0.00 | 84 | 1002.6 |
| 20260510065659 | 72 | 23 | 0.0 | 0.0 | 0.00 | 0.00 | 0.00 | 84 | 1002.6 |
| 20260510065559 | 72 | 23 | 0.0 | 0.0 | 0.00 | 0.00 | 0.00 | 84 | 1002.6 |
| 20260510065458 | 72 | 23 | 0.0 | 0.0 | 0.00 | 0.00 | 0.00 | 84 | 1002.6 |
| 20260510065400 | 72 | 23 | 0.0 | 0.0 | 0.00 | 0.00 | 0.00 | 84 | 1002.6 |
| 20260510065258 | 72 | 23 | 0.0 | 0.0 | 0.00 | 0.00 | 0.00 | 84 | 1002.6 |
| 20260510065201 | 72 | 23 | 0.0 | 0.0 | 0.00 | 0.00 | 0.00 | 84 | 1002.6 |
| 20260510065059 | 72 | 23 | 0.0 | 0.0 | 0.00 | 0.00 | 0.00 | 84 | 1002.6 |
| 20260510064959 | 72 | 23 | 0.0 | 0.0 | 0.00 | 0.00 | 0.00 | 84 | 1002.6 |
| 20260510064900 | 72 | 23 | 0.0 | 0.0 | 0.00 | 0.00 | 0.00 | 84 | 1002.6 |
| 20260510064758 | 72 | 23 | 0.0 | 0.0 | 0.00 | 0.00 | 0.00 | 84 | 1002.6 |
| 20260510064658 | 72 | 23 | 0.0 | 0.0 | 0.00 | 0.00 | 0.00 | 84 | 1002.6 |
| 20260510064559 | 72 | 23 | 0.0 | 0.0 | 0.00 | 0.00 | 0.00 | 84 | 1002.7 |
| 20260510064458 | 72 | 23 | 0.0 | 0.0 | 0.00 | 0.00 | 0.00 | 84 | 1002.7 |
| 20260510064359 | 72 | 23 | 0.0 | 0.0 | 0.00 | 0.00 | 0.00 | 84 | 1002.7 |
| 20260510064258 | 72 | 23 | 0.0 | 0.0 | 0.00 | 0.00 | 0.00 | 84 | 1002.6 |
| 20260510064200 | 72 | 23 | 0.0 | 0.0 | 0.00 | 0.00 | 0.00 | 84 | 1002.7 |
| 20260510064059 | 72 | 23 | 0.0 | 0.0 | 0.00 | 0.00 | 0.00 | 84 | 1002.8 |
| 20260510063958 | 72 | 23 | 0.0 | 0.0 | 0.00 | 0.00 | 0.00 | 84 | 1002.8 |
| 20260510063858 | 72 | 23 | 0.0 | 0.0 | 0.00 | 0.00 | 0.00 | 84 | 1002.7 |
| 20260510063759 | 72 | 23 | 0.0 | 0.0 | 0.00 | 0.00 | 0.00 | 84 | 1002.8 |
| 20260510063659 | 72 | 23 | 0.0 | 0.0 | 0.00 | 0.00 | 0.00 | 84 | 1002.7 |
| 20260510063602 | 72 | 23 | 0.0 | 0.0 | 0.00 | 0.00 | 0.00 | 84 | 1002.7 |
| 20260510063458 | 72 | 23 | 0.0 | 0.0 | 0.00 | 0.00 | 0.00 | 84 | 1002.8 |
| 20260510063359 | 72 | 23 | 0.0 | 0.0 | 0.00 | 0.00 | 0.00 | 84 | 1002.8 |
| 20260510063258 | 72 | 23 | 0.0 | 0.0 | 0.00 | 0.00 | 0.00 | 84 | 1002.8 |
| 20260510063159 | 72 | 23 | 0.0 | 0.0 | 0.00 | 0.00 | 0.00 | 84 | 1002.8 |
| 20260510063058 | 72 | 23 | 0.0 | 0.0 | 0.00 | 0.00 | 0.00 | 84 | 1002.9 |
| 20260510062959 | 73 | 23 | 0.0 | 0.0 | 0.00 | 0.00 | 0.00 | 84 | 1002.9 |
| 20260510062858 | 73 | 23 | 0.0 | 0.0 | 0.00 | 0.00 | 0.00 | 84 | 1002.9 |
| 20260510062759 | 73 | 23 | 0.0 | 0.0 | 0.00 | 0.00 | 0.00 | 84 | 1002.8 |
| 20260510062658 | 73 | 23 | 0.0 | 0.0 | 0.00 | 0.00 | 0.00 | 84 | 1002.9 |
| 20260510062559 | 73 | 23 | 0.0 | 0.0 | 0.00 | 0.00 | 0.00 | 84 | 1002.9 |
| 20260510062459 | 73 | 23 | 0.0 | 0.0 | 0.00 | 0.00 | 0.00 | 84 | 1002.9 |
| 20260510062358 | 73 | 23 | 0.0 | 0.0 | 0.00 | 0.00 | 0.00 | 84 | 1002.9 |
| 20260510062258 | 73 | 23 | 0.0 | 0.0 | 0.00 | 0.00 | 0.00 | 84 | 1002.9 |
| 20260510062204 | 73 | 23 | 0.0 | 0.0 | 0.00 | 0.00 | 0.00 | 84 | 1002.9 |
| 20260510062058 | 73 | 23 | 0.0 | 0.0 | 0.00 | 0.00 | 0.00 | 84 | 1002.9 |
| 20260510061958 | 73 | 23 | 0.0 | 0.0 | 0.00 | 0.00 | 0.00 | 84 | 1002.9 |
| 20260510061859 | 73 | 23 | 0.0 | 0.0 | 0.00 | 0.00 | 0.00 | 84 | 1002.9 |
| 20260510061757 | 73 | 23 | 0.0 | 0.0 | 0.00 | 0.00 | 0.00 | 84 | 1003.0 |
| 20260510061702 | 73 | 23 | 0.0 | 0.0 | 0.00 | 0.00 | 0.00 | 84 | 1003.0 |
| 20260510061559 | 73 | 23 | 0.0 | 0.0 | 0.00 | 0.00 | 0.00 | 84 | 1003.0 |
| 20260510061457 | 73 | 23 | 0.0 | 0.0 | 0.00 | 0.00 | 0.00 | 84 | 1003.0 |
| 20260510061400 | 73 | 23 | 0.0 | 0.0 | 0.00 | 0.00 | 0.00 | 84 | 1003.0 |
| 20260510061259 | 73 | 23 | 0.0 | 0.0 | 0.00 | 0.00 | 0.00 | 84 | 1003.0 |
| 20260510061159 | 73 | 23 | 0.0 | 0.0 | 0.00 | 0.00 | 0.00 | 84 | 1003.0 |
| 20260510061059 | 73 | 23 | 0.0 | 0.0 | 0.00 | 0.00 | 0.00 | 84 | 1003.0 |
| 20260510060958 | 73 | 23 | 0.0 | 0.0 | 0.00 | 0.00 | 0.00 | 84 | 1003.0 |
| 20260510060859 | 73 | 23 | 0.0 | 0.0 | 0.00 | 0.00 | 0.00 | 84 | 1002.9 |
| 20260510060758 | 73 | 23 | 0.0 | 0.0 | 0.00 | 0.00 | 0.00 | 84 | 1002.9 |
| 20260510060657 | 73 | 23 | 0.0 | 0.0 | 0.00 | 0.00 | 0.00 | 84 | 1002.9 |
| 20260510060559 | 73 | 23 | 0.0 | 0.0 | 0.00 | 0.00 | 0.00 | 84 | 1002.9 |
| 20260510060457 | 73 | 23 | 0.0 | 0.0 | 0.00 | 0.00 | 0.00 | 84 | 1002.9 |
| 20260510060359 | 73 | 23 | 0.0 | 0.0 | 0.00 | 0.00 | 0.00 | 83 | 1002.8 |
| 20260510060257 | 73 | 23 | 0.0 | 0.0 | 0.00 | 0.00 | 0.00 | 83 | 1002.8 |
| 20260510060159 | 73 | 23 | 0.0 | 0.0 | 0.00 | 0.00 | 0.00 | 83 | 1002.8 |
| 20260510060058 | 73 | 23 | 0.0 | 0.0 | 0.00 | 0.00 | 0.00 | 83 | 1002.8 |
| 20260510055957 | 73 | 23 | 0.0 | 0.0 | 0.00 | 0.00 | 0.00 | 83 | 1002.8 |
| 20260510055859 | 73 | 23 | 0.0 | 0.0 | 0.00 | 0.00 | 0.00 | 83 | 1002.8 |
| 20260510055758 | 73 | 23 | 0.0 | 0.0 | 0.00 | 0.00 | 0.00 | 83 | 1002.8 |
| 20260510055657 | 73 | 23 | 0.0 | 0.0 | 0.00 | 0.00 | 0.00 | 83 | 1002.8 |
| 20260510055557 | 73 | 23 | 0.0 | 0.0 | 0.00 | 0.00 | 0.00 | 83 | 1002.8 |
| 20260510055458 | 73 | 23 | 0.0 | 0.0 | 0.00 | 0.00 | 0.00 | 83 | 1002.8 |
| 20260510055359 | 74 | 23 | 0.0 | 0.0 | 0.00 | 0.00 | 0.00 | 83 | 1002.8 |
| 20260510055259 | 74 | 23 | 0.0 | 0.0 | 0.00 | 0.00 | 0.00 | 83 | 1002.8 |
| 20260510055158 | 74 | 23 | 0.0 | 0.0 | 0.00 | 0.00 | 0.00 | 83 | 1002.8 |
| 20260510055059 | 74 | 23 | 0.0 | 0.0 | 0.00 | 0.00 | 0.00 | 83 | 1002.8 |
| 20260510054958 | 74 | 23 | 0.0 | 0.0 | 0.00 | 0.00 | 0.00 | 83 | 1002.8 |
| 20260510054858 | 74 | 23 | 0.0 | 0.0 | 0.00 | 0.00 | 0.00 | 83 | 1002.9 |
| 20260510054757 | 74 | 23 | 0.0 | 0.0 | 0.00 | 0.00 | 0.00 | 83 | 1002.9 |
| 20260510054658 | 74 | 23 | 0.0 | 0.0 | 0.00 | 0.00 | 0.00 | 83 | 1002.9 |
| 20260510054558 | 74 | 23 | 0.0 | 0.0 | 0.00 | 0.00 | 0.00 | 83 | 1002.9 |
| 20260510054457 | 74 | 23 | 0.0 | 0.0 | 0.00 | 0.00 | 0.00 | 83 | 1002.9 |
| 20260510054357 | 74 | 23 | 0.0 | 0.0 | 0.00 | 0.00 | 0.00 | 83 | 1002.9 |
| 20260510054257 | 74 | 23 | 0.0 | 0.0 | 0.00 | 0.00 | 0.00 | 83 | 1002.9 |
| 20260510054157 | 74 | 23 | 0.0 | 0.0 | 0.00 | 0.00 | 0.00 | 83 | 1002.9 |
| 20260510054057 | 74 | 23 | 0.0 | 0.0 | 0.00 | 0.00 | 0.00 | 83 | 1002.9 |
| 20260510053958 | 74 | 23 | 0.0 | 0.0 | 0.00 | 0.00 | 0.00 | 83 | 1002.9 |
| 20260510053858 | 74 | 23 | 0.0 | 0.0 | 0.00 | 0.00 | 0.00 | 83 | 1002.9 |
| 20260510053757 | 74 | 23 | 0.0 | 0.0 | 0.00 | 0.00 | 0.00 | 83 | 1002.9 |
| 20260510053659 | 74 | 23 | 0.0 | 0.0 | 0.00 | 0.00 | 0.00 | 83 | 1002.9 |
| 20260510053557 | 74 | 23 | 0.0 | 0.0 | 0.00 | 0.00 | 0.00 | 83 | 1002.9 |
| 20260510053457 | 74 | 23 | 0.0 | 0.0 | 0.00 | 0.00 | 0.00 | 83 | 1003.0 |
| 20260510053358 | 74 | 23 | 0.0 | 0.0 | 0.00 | 0.00 | 0.00 | 83 | 1002.9 |
| 20260510053258 | 74 | 23 | 0.0 | 0.0 | 0.00 | 0.00 | 0.00 | 83 | 1003.1 |
| 20260510053203 | 74 | 23 | 0.0 | 0.0 | 0.00 | 0.00 | 0.00 | 83 | 1003.0 |
| 20260510053059 | 74 | 23 | 0.0 | 0.0 | 0.00 | 0.00 | 0.00 | 83 | 1003.1 |
| 20260510052958 | 74 | 23 | 0.0 | 0.0 | 0.00 | 0.00 | 0.00 | 83 | 1002.9 |
| 20260510052858 | 74 | 23 | 0.0 | 0.0 | 0.00 | 0.00 | 0.00 | 83 | 1003.0 |
| 20260510052757 | 74 | 23 | 0.0 | 0.0 | 0.00 | 0.00 | 0.00 | 83 | 1003.0 |
| 20260510052657 | 74 | 23 | 0.0 | 0.0 | 0.00 | 0.00 | 0.00 | 83 | 1003.0 |
| 20260510052556 | 74 | 23 | 0.0 | 0.0 | 0.00 | 0.00 | 0.00 | 83 | 1002.9 |
| 20260510052450 | 74 | 23 | 0.0 | 0.0 | 0.00 | 0.00 | 0.00 | 83 | 1002.9 |
| 20260510052352 | 74 | 23 | 0.0 | 0.0 | 0.00 | 0.00 | 0.00 | 83 | 1002.9 |
| 20260510052251 | 74 | 23 | 0.0 | 0.0 | 0.00 | 0.00 | 0.00 | 83 | 1002.9 |
| 20260510052152 | 74 | 23 | 0.0 | 0.0 | 0.00 | 0.00 | 0.00 | 83 | 1002.9 |
| 20260510052050 | 74 | 23 | 0.0 | 0.0 | 0.00 | 0.00 | 0.00 | 83 | 1002.9 |
| 20260510051948 | 74 | 23 | 0.0 | 0.0 | 0.00 | 0.00 | 0.00 | 83 | 1002.9 |
| 20260510051844 | 74 | 23 | 0.0 | 0.0 | 0.00 | 0.00 | 0.00 | 83 | 1002.8 |
| 20260510051743 | 74 | 23 | 0.0 | 0.0 | 0.00 | 0.00 | 0.00 | 83 | 1002.9 |
| 20260510051638 | 74 | 23 | 0.0 | 0.0 | 0.00 | 0.00 | 0.00 | 83 | 1002.8 |
| 20260510051537 | 74 | 23 | 0.0 | 0.0 | 0.00 | 0.00 | 0.00 | 83 | 1002.8 |
| 20260510051430 | 74 | 23 | 0.0 | 0.0 | 0.00 | 0.00 | 0.00 | 83 | 1002.9 |
| 20260510051331 | 74 | 23 | 0.0 | 0.0 | 0.00 | 0.00 | 0.00 | 83 | 1002.9 |
| 20260510051233 | 74 | 23 | 0.0 | 0.0 | 0.00 | 0.00 | 0.00 | 83 | 1002.8 |
| 20260510051132 | 74 | 23 | 0.0 | 0.0 | 0.00 | 0.00 | 0.00 | 83 | 1002.8 |
| 20260510051032 | 74 | 23 | 0.0 | 0.0 | 0.00 | 0.00 | 0.00 | 83 | 1002.9 |
| 20260510050931 | 74 | 23 | 0.0 | 0.0 | 0.00 | 0.00 | 0.00 | 83 | 1002.8 |
| 20260510050831 | 74 | 23 | 0.0 | 0.0 | 0.00 | 0.00 | 0.00 | 83 | 1002.9 |
| 20260510050731 | 74 | 23 | 0.0 | 0.0 | 0.00 | 0.00 | 0.00 | 83 | 1002.8 |
| 20260510050632 | 74 | 23 | 0.0 | 0.0 | 0.00 | 0.00 | 0.00 | 83 | 1002.8 |
| 20260510050538 | 74 | 23 | 0.0 | 0.0 | 0.00 | 0.00 | 0.00 | 83 | 1002.8 |
| 20260510050420 | 74 | 23 | 0.0 | 0.0 | 0.00 | 0.00 | 0.00 | 83 | 1002.8 |
| 20260510050321 | 74 | 23 | 0.0 | 0.0 | 0.00 | 0.00 | 0.00 | 83 | 1002.7 |
| 20260510050215 | 74 | 23 | 0.0 | 0.0 | 0.00 | 0.00 | 0.00 | 83 | 1002.8 |
| 20260510050109 | 74 | 23 | 0.0 | 0.0 | 0.00 | 0.00 | 0.00 | 83 | 1002.7 |
| 20260510050005 | 74 | 1 | 0.0 | 0.0 | 0.00 | 0.00 | 0.00 | 83 | 1002.7 |
| 20260510045902 | 74 | 1 | 0.0 | 0.0 | 0.00 | 0.00 | 0.00 | 83 | 1002.8 |
| 20260510045802 | 75 | 1 | 0.0 | 0.0 | 0.00 | 0.00 | 0.00 | 83 | 1002.8 |
| 20260510045703 | 75 | 1 | 0.0 | 0.0 | 0.00 | 0.00 | 0.00 | 83 | 1002.8 |
| 20260510045604 | 75 | 1 | 0.0 | 0.0 | 0.00 | 0.00 | 0.00 | 83 | 1002.8 |
| 20260510045504 | 75 | 1 | 0.0 | 0.0 | 0.00 | 0.00 | 0.00 | 83 | 1002.7 |
| 20260510045403 | 75 | 1 | 0.0 | 0.0 | 0.00 | 0.00 | 0.00 | 83 | 1002.8 |
| 20260510045305 | 75 | 1 | 0.0 | 0.0 | 0.00 | 0.00 | 0.00 | 83 | 1002.8 |
| 20260510045202 | 75 | 1 | 0.0 | 0.0 | 0.00 | 0.00 | 0.00 | 83 | 1002.8 |
| 20260510045101 | 75 | 1 | 0.0 | 0.0 | 0.00 | 0.00 | 0.00 | 83 | 1002.8 |
| 20260510045003 | 75 | 1 | 0.0 | 0.0 | 0.00 | 0.00 | 0.00 | 83 | 1002.8 |
| 20260510044903 | 75 | 1 | 0.0 | 0.0 | 0.00 | 0.00 | 0.00 | 83 | 1002.9 |
| 20260510044802 | 75 | 1 | 0.0 | 0.0 | 0.00 | 0.00 | 0.00 | 83 | 1002.9 |
| 20260510044707 | 75 | 1 | 0.0 | 0.0 | 0.00 | 0.00 | 0.00 | 83 | 1002.9 |
| 20260510044602 | 75 | 0 | 0.0 | 1.0 | 0.00 | 0.00 | 0.00 | 83 | 1002.9 |
| 20260510044503 | 75 | 0 | 0.0 | 1.0 | 0.00 | 0.00 | 0.00 | 83 | 1002.9 |
| 20260510044403 | 75 | 0 | 0.0 | 1.0 | 0.00 | 0.00 | 0.00 | 83 | 1002.9 |
| 20260510044302 | 75 | 0 | 0.0 | 1.0 | 0.00 | 0.00 | 0.00 | 83 | 1002.9 |
| 20260510044203 | 75 | 0 | 0.0 | 1.0 | 0.00 | 0.00 | 0.00 | 83 | 1002.8 |
| 20260510044103 | 75 | 0 | 0.0 | 1.0 | 0.00 | 0.00 | 0.00 | 83 | 1002.8 |
| 20260510044002 | 75 | 0 | 0.0 | 1.0 | 0.00 | 0.00 | 0.00 | 83 | 1002.9 |
| 20260510043903 | 75 | 6 | 0.0 | 1.0 | 0.00 | 0.00 | 0.00 | 83 | 1002.9 |
| 20260510043804 | 75 | 6 | 0.0 | 1.0 | 0.00 | 0.00 | 0.00 | 83 | 1002.9 |
| 20260510043702 | 75 | 3 | 0.0 | 1.0 | 0.00 | 0.00 | 0.00 | 83 | 1003.0 |
| 20260510043603 | 75 | 69 | 0.0 | 1.0 | 0.00 | 0.00 | 0.00 | 83 | 1003.0 |
| 20260510043502 | 75 | 69 | 0.0 | 1.0 | 0.00 | 0.00 | 0.00 | 83 | 1002.9 |
| 20260510043402 | 75 | 69 | 0.0 | 0.0 | 0.00 | 0.00 | 0.00 | 82 | 1003.0 |
| 20260510043302 | 75 | 69 | 0.0 | 0.0 | 0.00 | 0.00 | 0.00 | 82 | 1003.0 |
| 20260510043205 | 75 | 69 | 0.0 | 0.0 | 0.00 | 0.00 | 0.00 | 82 | 1003.0 |
| 20260510043102 | 75 | 69 | 0.0 | 0.0 | 0.00 | 0.00 | 0.00 | 82 | 1002.9 |
| 20260510043005 | 75 | 69 | 0.0 | 0.0 | 0.00 | 0.00 | 0.00 | 82 | 1003.0 |
| 20260510042902 | 75 | 73 | 0.0 | 0.0 | 0.00 | 0.00 | 0.00 | 82 | 1002.9 |
| 20260510042803 | 75 | 73 | 0.0 | 0.0 | 0.00 | 0.00 | 0.00 | 82 | 1002.9 |
| 20260510042702 | 75 | 73 | 0.0 | 0.0 | 0.00 | 0.00 | 0.00 | 82 | 1003.0 |
| 20260510042607 | 75 | 73 | 0.0 | 0.0 | 0.00 | 0.00 | 0.00 | 82 | 1003.0 |
| 20260510042502 | 75 | 73 | 0.0 | 0.0 | 0.00 | 0.00 | 0.00 | 82 | 1002.9 |
| 20260510042402 | 75 | 73 | 0.0 | 0.0 | 0.00 | 0.00 | 0.00 | 82 | 1002.9 |
| 20260510042305 | 75 | 344 | 0.0 | 0.0 | 0.00 | 0.00 | 0.00 | 82 | 1003.0 |
| 20260510042202 | 75 | 344 | 0.0 | 0.0 | 0.00 | 0.00 | 0.00 | 82 | 1003.0 |
| 20260510042103 | 75 | 344 | 0.0 | 0.0 | 0.00 | 0.00 | 0.00 | 82 | 1002.9 |
| 20260510042003 | 75 | 344 | 0.0 | 0.0 | 0.00 | 0.00 | 0.00 | 82 | 1003.0 |
| 20260510041902 | 75 | 344 | 0.0 | 0.0 | 0.00 | 0.00 | 0.00 | 82 | 1002.8 |
| 20260510041802 | 75 | 344 | 0.0 | 0.0 | 0.00 | 0.00 | 0.00 | 82 | 1002.9 |
| 20260510041704 | 75 | 344 | 0.0 | 0.0 | 0.00 | 0.00 | 0.00 | 82 | 1002.8 |
| 20260510041602 | 75 | 344 | 0.0 | 0.0 | 0.00 | 0.00 | 0.00 | 82 | 1002.7 |
| 20260510041502 | 75 | 344 | 0.0 | 0.0 | 0.00 | 0.00 | 0.00 | 82 | 1002.8 |
| 20260510041402 | 75 | 344 | 0.0 | 2.0 | 0.00 | 0.00 | 0.00 | 82 | 1002.8 |
| 20260510041303 | 75 | 344 | 0.0 | 2.0 | 0.00 | 0.00 | 0.00 | 82 | 1002.8 |
| 20260510041202 | 75 | 344 | 0.0 | 2.0 | 0.00 | 0.00 | 0.00 | 82 | 1002.8 |
| 20260510041102 | 75 | 344 | 0.0 | 2.0 | 0.00 | 0.00 | 0.00 | 82 | 1002.8 |
| 20260510041003 | 75 | 344 | 0.0 | 2.0 | 0.00 | 0.00 | 0.00 | 82 | 1002.8 |
| 20260510040903 | 75 | 344 | 0.0 | 2.0 | 0.00 | 0.00 | 0.00 | 82 | 1002.8 |
| 20260510040802 | 75 | 344 | 0.0 | 2.0 | 0.00 | 0.00 | 0.00 | 82 | 1002.8 |
| 20260510040702 | 75 | 344 | 0.0 | 2.0 | 0.00 | 0.00 | 0.00 | 82 | 1002.8 |
| 20260510040604 | 75 | 344 | 0.0 | 2.0 | 0.00 | 0.00 | 0.00 | 82 | 1002.8 |
| 20260510040502 | 75 | 344 | 0.0 | 2.0 | 0.00 | 0.00 | 0.00 | 82 | 1002.7 |
| 20260510040404 | 75 | 71 | 0.0 | 0.0 | 0.00 | 0.00 | 0.00 | 82 | 1002.8 |
| 20260510040302 | 75 | 71 | 0.0 | 0.0 | 0.00 | 0.00 | 0.00 | 82 | 1002.7 |
| 20260510040214 | 75 | 71 | 0.0 | 0.0 | 0.00 | 0.00 | 0.00 | 82 | 1002.8 |
| 20260510040104 | 75 | 68 | 0.0 | 7.0 | 0.00 | 0.00 | 0.00 | 82 | 1002.8 |
| 20260510040004 | 75 | 68 | 0.0 | 7.0 | 0.00 | 0.00 | 0.00 | 82 | 1002.8 |
| 20260510035903 | 75 | 68 | 0.0 | 7.0 | 0.00 | 0.00 | 0.00 | 82 | 1002.8 |
| 20260510035804 | 75 | 69 | 0.0 | 7.0 | 0.00 | 0.00 | 0.00 | 82 | 1002.8 |
| 20260510035702 | 75 | 66 | 0.0 | 7.0 | 0.00 | 0.00 | 0.00 | 82 | 1002.8 |
| 20260510035602 | 75 | 66 | 0.0 | 7.0 | 0.00 | 0.00 | 0.00 | 82 | 1002.7 |
| 20260510035502 | 75 | 66 | 0.0 | 7.0 | 0.00 | 0.00 | 0.00 | 82 | 1002.8 |
| 20260510035402 | 75 | 66 | 0.0 | 7.0 | 0.00 | 0.00 | 0.00 | 82 | 1002.8 |
| 20260510035306 | 75 | 68 | 1.0 | 7.0 | 0.00 | 0.00 | 0.00 | 82 | 1002.9 |
| 20260510035204 | 75 | 68 | 1.0 | 7.0 | 0.00 | 0.00 | 0.00 | 82 | 1002.9 |
| 20260510035102 | 75 | 93 | 0.0 | 3.0 | 0.00 | 0.00 | 0.00 | 82 | 1002.9 |
| 20260510035002 | 75 | 94 | 0.0 | 3.0 | 0.00 | 0.00 | 0.00 | 82 | 1003.0 |
| 20260510034902 | 75 | 94 | 0.0 | 3.0 | 0.00 | 0.00 | 0.00 | 82 | 1002.9 |
| 20260510034802 | 75 | 285 | 0.0 | 3.0 | 0.00 | 0.00 | 0.00 | 82 | 1003.0 |
| 20260510034706 | 75 | 285 | 0.0 | 3.0 | 0.00 | 0.00 | 0.00 | 82 | 1003.1 |
| 20260510034602 | 75 | 309 | 0.0 | 3.0 | 0.00 | 0.00 | 0.00 | 82 | 1003.1 |
| 20260510034502 | 75 | 336 | 0.0 | 3.0 | 0.00 | 0.00 | 0.00 | 82 | 1003.1 |
| 20260510034402 | 75 | 336 | 0.0 | 3.0 | 0.00 | 0.00 | 0.00 | 83 | 1003.0 |
| 20260510034303 | 75 | 317 | 0.0 | 2.0 | 0.00 | 0.00 | 0.00 | 83 | 1003.0 |
| 20260510034202 | 75 | 317 | 0.0 | 2.0 | 0.00 | 0.00 | 0.00 | 83 | 1003.0 |
| 20260510034102 | 75 | 317 | 0.0 | 2.0 | 0.00 | 0.00 | 0.00 | 83 | 1003.1 |
| 20260510034002 | 75 | 317 | 0.0 | 2.0 | 0.00 | 0.00 | 0.00 | 83 | 1003.1 |
| 20260510033902 | 75 | 317 | 0.0 | 2.0 | 0.00 | 0.00 | 0.00 | 83 | 1003.0 |
| 20260510033802 | 75 | 317 | 0.0 | 2.0 | 0.00 | 0.00 | 0.00 | 83 | 1003.0 |
| 20260510033702 | 75 | 310 | 0.0 | 2.0 | 0.00 | 0.00 | 0.00 | 83 | 1002.9 |
| 20260510033602 | 75 | 309 | 0.0 | 2.0 | 0.00 | 0.00 | 0.00 | 83 | 1003.1 |
| 20260510033504 | 75 | 309 | 0.0 | 2.0 | 0.00 | 0.00 | 0.00 | 83 | 1003.1 |
| 20260510033402 | 75 | 309 | 0.0 | 2.0 | 0.00 | 0.00 | 0.00 | 83 | 1003.0 |
| 20260510033302 | 75 | 306 | 0.0 | 2.0 | 0.00 | 0.00 | 0.00 | 83 | 1003.1 |
| 20260510033203 | 75 | 306 | 0.0 | 2.0 | 0.00 | 0.00 | 0.00 | 83 | 1003.1 |
| 20260510033102 | 75 | 336 | 0.0 | 2.0 | 0.00 | 0.00 | 0.00 | 83 | 1003.1 |
| 20260510033003 | 75 | 235 | 0.0 | 1.0 | 0.00 | 0.00 | 0.00 | 83 | 1003.0 |
| 20260510032905 | 75 | 238 | 0.0 | 1.0 | 0.00 | 0.00 | 0.00 | 83 | 1003.0 |
| 20260510032801 | 75 | 329 | 0.0 | 1.0 | 0.00 | 0.00 | 0.00 | 82 | 1003.0 |
| 20260510032702 | 74 | 327 | 0.0 | 4.0 | 0.00 | 0.00 | 0.00 | 82 | 1003.0 |
| 20260510032602 | 74 | 327 | 0.0 | 4.0 | 0.00 | 0.00 | 0.00 | 82 | 1003.0 |
| 20260510032503 | 74 | 321 | 0.0 | 4.0 | 0.00 | 0.00 | 0.00 | 82 | 1003.1 |
| 20260510032402 | 74 | 94 | 0.0 | 4.0 | 0.00 | 0.00 | 0.00 | 82 | 1003.0 |
| 20260510032305 | 74 | 68 | 0.0 | 4.0 | 0.00 | 0.00 | 0.00 | 82 | 1003.1 |
| 20260510032201 | 74 | 1 | 0.0 | 4.0 | 0.00 | 0.00 | 0.00 | 82 | 1003.1 |
| 20260510032103 | 74 | 344 | 0.0 | 4.0 | 0.00 | 0.00 | 0.00 | 82 | 1003.1 |
| 20260510032002 | 74 | 344 | 0.0 | 4.0 | 0.00 | 0.00 | 0.00 | 82 | 1003.1 |
| 20260510031903 | 74 | 344 | 0.0 | 4.0 | 0.00 | 0.00 | 0.00 | 81 | 1003.1 |
| 20260510031803 | 74 | 344 | 1.0 | 4.0 | 0.00 | 0.00 | 0.00 | 81 | 1003.1 |
| 20260510031709 | 74 | 155 | 0.0 | 1.0 | 0.00 | 0.00 | 0.00 | 81 | 1003.1 |
| 20260510031603 | 74 | 257 | 0.0 | 1.0 | 0.00 | 0.00 | 0.00 | 81 | 1003.0 |
| 20260510031504 | 74 | 261 | 0.0 | 1.0 | 0.00 | 0.00 | 0.00 | 81 | 1003.1 |
| 20260510031402 | 74 | 261 | 0.0 | 1.0 | 0.00 | 0.00 | 0.00 | 81 | 1003.1 |
| 20260510031303 | 74 | 261 | 0.0 | 1.0 | 0.00 | 0.00 | 0.00 | 81 | 1003.1 |
| 20260510031202 | 74 | 261 | 0.0 | 1.0 | 0.00 | 0.00 | 0.00 | 81 | 1003.1 |
| 20260510031103 | 74 | 317 | 0.0 | 0.0 | 0.00 | 0.00 | 0.00 | 80 | 1003.1 |
| 20260510031005 | 74 | 316 | 0.0 | 0.0 | 0.00 | 0.00 | 0.00 | 80 | 1003.1 |
| 20260510030901 | 74 | 323 | 0.0 | 0.0 | 0.00 | 0.00 | 0.00 | 80 | 1003.2 |
| 20260510030803 | 74 | 323 | 0.0 | 0.0 | 0.00 | 0.00 | 0.00 | 80 | 1003.1 |
| 20260510030704 | 74 | 323 | 0.0 | 0.0 | 0.00 | 0.00 | 0.00 | 80 | 1003.1 |
| 20260510030603 | 74 | 323 | 0.0 | 0.0 | 0.00 | 0.00 | 0.00 | 80 | 1003.1 |
| 20260510030505 | 74 | 323 | 0.0 | 0.0 | 0.00 | 0.00 | 0.00 | 80 | 1003.0 |
| 20260510030402 | 74 | 323 | 0.0 | 0.0 | 0.00 | 0.00 | 0.00 | 80 | 1003.0 |
| 20260510030302 | 74 | 309 | 0.0 | 0.0 | 0.00 | 0.00 | 0.00 | 80 | 1003.0 |
| 20260510030202 | 74 | 151 | 0.0 | 0.0 | 0.00 | 0.00 | 0.00 | 80 | 1003.0 |
| 20260510030004 | 74 | 151 | 0.0 | 0.0 | 0.00 | 0.00 | 0.00 | 79 | 1003.0 |
| 20260510025903 | 74 | 157 | 0.0 | 0.0 | 0.00 | 0.00 | 0.00 | 79 | 1002.8 |
| 20260510025803 | 74 | 157 | 0.0 | 0.0 | 0.00 | 0.00 | 0.00 | 79 | 1002.7 |
| 20260510025703 | 74 | 157 | 0.0 | 0.0 | 0.00 | 0.00 | 0.00 | 79 | 1002.7 |
| 20260510025604 | 74 | 157 | 0.0 | 0.0 | 0.00 | 0.00 | 0.00 | 79 | 1002.6 |
| 20260510025504 | 74 | 157 | 0.0 | 0.0 | 0.00 | 0.00 | 0.00 | 79 | 1002.6 |
| 20260510025402 | 74 | 157 | 0.0 | 0.0 | 0.00 | 0.00 | 0.00 | 79 | 1002.6 |
| 20260510025306 | 74 | 157 | 0.0 | 0.0 | 0.00 | 0.00 | 0.00 | 79 | 1002.5 |
| 20260510025202 | 74 | 157 | 0.0 | 0.0 | 0.00 | 0.00 | 0.00 | 79 | 1002.5 |
| 20260510025104 | 74 | 157 | 0.0 | 0.0 | 0.00 | 0.00 | 0.00 | 78 | 1002.4 |
| 20260510025002 | 74 | 157 | 0.0 | 0.0 | 0.00 | 0.00 | 0.00 | 78 | 1002.3 |
| 20260510024902 | 75 | 157 | 0.0 | 0.0 | 0.00 | 0.00 | 0.00 | 78 | 1002.2 |
| 20260510024802 | 75 | 157 | 0.0 | 0.0 | 0.00 | 0.00 | 0.00 | 78 | 1002.1 |
| 20260510024703 | 75 | 157 | 0.0 | 0.0 | 0.00 | 0.00 | 0.00 | 78 | 1002.0 |
| 20260510024602 | 75 | 157 | 0.0 | 0.0 | 0.00 | 0.00 | 0.00 | 78 | 1002.0 |
| 20260510024505 | 75 | 157 | 0.0 | 0.0 | 0.00 | 0.00 | 0.00 | 77 | 1001.9 |
| 20260510024403 | 75 | 157 | 0.0 | 0.0 | 0.00 | 0.00 | 0.00 | 77 | 1001.8 |
| 20260510024304 | 75 | 157 | 0.0 | 0.0 | 0.00 | 0.00 | 0.00 | 77 | 1001.9 |
| 20260510024203 | 75 | 157 | 0.0 | 0.0 | 0.00 | 0.00 | 0.00 | 77 | 1001.9 |
| 20260510024102 | 75 | 157 | 0.0 | 0.0 | 0.00 | 0.00 | 0.00 | 77 | 1001.8 |
| 20260510024003 | 75 | 157 | 0.0 | 0.0 | 0.00 | 0.00 | 0.00 | 77 | 1001.8 |
| 20260510023902 | 75 | 157 | 0.0 | 0.0 | 0.00 | 0.00 | 0.00 | 77 | 1001.8 |
| 20260510023802 | 75 | 157 | 0.0 | 0.0 | 0.00 | 0.00 | 0.00 | 77 | 1001.7 |
| 20260510023704 | 75 | 157 | 0.0 | 0.0 | 0.00 | 0.00 | 0.00 | 77 | 1001.7 |
| 20260510023605 | 75 | 157 | 0.0 | 0.0 | 0.00 | 0.00 | 0.00 | 77 | 1001.7 |
| 20260510023503 | 75 | 157 | 0.0 | 0.0 | 0.00 | 0.00 | 0.00 | 77 | 1001.6 |
| 20260510023401 | 75 | 157 | 0.0 | 0.0 | 0.00 | 0.00 | 0.00 | 77 | 1001.6 |
| 20260510023302 | 76 | 157 | 0.0 | 0.0 | 0.00 | 0.00 | 0.00 | 77 | 1001.6 |
| 20260510023202 | 76 | 157 | 0.0 | 0.0 | 0.00 | 0.00 | 0.00 | 76 | 1001.5 |
| 20260510023103 | 76 | 157 | 0.0 | 0.0 | 0.00 | 0.00 | 0.00 | 76 | 1001.5 |
| 20260510022959 | 76 | 157 | 0.0 | 0.0 | 0.00 | 0.00 | 0.00 | 76 | 1001.5 |
| 20260510022854 | 76 | 157 | 0.0 | 0.0 | 0.00 | 0.00 | 0.00 | 76 | 1001.6 |
| 20260510022752 | 76 | 157 | 0.0 | 0.0 | 0.00 | 0.00 | 0.00 | 76 | 1001.5 |
| 20260510022659 | 76 | 157 | 0.0 | 0.0 | 0.00 | 0.00 | 0.00 | 76 | 1001.5 |
| 20260510022553 | 76 | 157 | 0.0 | 0.0 | 0.00 | 0.00 | 0.00 | 76 | 1001.4 |
| 20260510022453 | 76 | 157 | 0.0 | 0.0 | 0.00 | 0.00 | 0.00 | 76 | 1001.4 |
| 20260510022354 | 76 | 157 | 0.0 | 0.0 | 0.00 | 0.00 | 0.00 | 76 | 1001.4 |
| 20260510022252 | 76 | 157 | 0.0 | 0.0 | 0.00 | 0.00 | 0.00 | 76 | 1001.4 |
| 20260510022153 | 76 | 157 | 0.0 | 0.0 | 0.00 | 0.00 | 0.00 | 76 | 1001.4 |
| 20260510022052 | 76 | 157 | 0.0 | 0.0 | 0.00 | 0.00 | 0.00 | 76 | 1001.3 |
| 20260510021953 | 76 | 157 | 0.0 | 0.0 | 0.00 | 0.00 | 0.00 | 76 | 1001.3 |
| 20260510021853 | 76 | 157 | 0.0 | 0.0 | 0.00 | 0.00 | 0.00 | 76 | 1001.3 |
| 20260510021752 | 76 | 157 | 0.0 | 0.0 | 0.00 | 0.00 | 0.00 | 76 | 1001.4 |
| 20260510021652 | 76 | 157 | 0.0 | 0.0 | 0.00 | 0.00 | 0.00 | 76 | 1001.4 |
| 20260510021554 | 76 | 157 | 0.0 | 0.0 | 0.00 | 0.00 | 0.00 | 75 | 1001.3 |
| 20260510021452 | 76 | 157 | 0.0 | 0.0 | 0.00 | 0.00 | 0.00 | 75 | 1001.4 |
| 20260510021355 | 76 | 157 | 0.0 | 0.0 | 0.00 | 0.00 | 0.00 | 75 | 1001.4 |
| 20260510021253 | 77 | 157 | 0.0 | 0.0 | 0.00 | 0.00 | 0.00 | 75 | 1001.4 |
| 20260510021157 | 77 | 157 | 0.0 | 0.0 | 0.00 | 0.00 | 0.00 | 75 | 1001.4 |
| 20260510021052 | 77 | 157 | 0.0 | 0.0 | 0.00 | 0.00 | 0.00 | 75 | 1001.4 |
| 20260510020952 | 77 | 157 | 0.0 | 0.0 | 0.00 | 0.00 | 0.00 | 75 | 1001.4 |
| 20260510020853 | 77 | 157 | 0.0 | 0.0 | 0.00 | 0.00 | 0.00 | 75 | 1001.3 |
| 20260510020754 | 77 | 157 | 0.0 | 0.0 | 0.00 | 0.00 | 0.00 | 75 | 1001.3 |
| 20260510020653 | 77 | 157 | 0.0 | 0.0 | 0.00 | 0.00 | 0.00 | 75 | 1001.4 |
| 20260510020552 | 77 | 157 | 0.0 | 0.0 | 0.00 | 0.00 | 0.00 | 75 | 1001.3 |
| 20260510020453 | 77 | 157 | 0.0 | 0.0 | 0.00 | 0.00 | 0.00 | 75 | 1001.2 |
| 20260510020353 | 77 | 157 | 0.0 | 0.0 | 0.00 | 0.00 | 0.00 | 75 | 1001.2 |
| 20260510020253 | 77 | 157 | 0.0 | 0.0 | 0.00 | 0.00 | 0.00 | 75 | 1001.2 |
| 20260510020153 | 77 | 157 | 0.0 | 0.0 | 0.00 | 0.00 | 0.00 | 75 | 1001.1 |
| 20260510020053 | 77 | 157 | 0.0 | 0.0 | 0.00 | 0.00 | 0.00 | 75 | 1001.1 |
| 20260510015953 | 77 | 157 | 0.0 | 0.0 | 0.00 | 0.00 | 0.00 | 75 | 1001.1 |
| 20260510015854 | 77 | 157 | 0.0 | 0.0 | 0.00 | 0.00 | 0.00 | 75 | 1001.0 |
| 20260510015753 | 77 | 157 | 0.0 | 0.0 | 0.00 | 0.00 | 0.00 | 75 | 1001.0 |
| 20260510015658 | 78 | 157 | 0.0 | 0.0 | 0.00 | 0.00 | 0.00 | 75 | 1001.0 |
| 20260510015554 | 78 | 157 | 0.0 | 0.0 | 0.00 | 0.00 | 0.00 | 75 | 1001.0 |
| 20260510015453 | 78 | 157 | 0.0 | 0.0 | 0.00 | 0.00 | 0.00 | 75 | 1001.0 |
| 20260510015353 | 78 | 157 | 0.0 | 0.0 | 0.00 | 0.00 | 0.00 | 75 | 1001.0 |
| 20260510015253 | 78 | 157 | 0.0 | 0.0 | 0.00 | 0.00 | 0.00 | 75 | 1001.0 |
| 20260510015154 | 78 | 157 | 0.0 | 0.0 | 0.00 | 0.00 | 0.00 | 75 | 1001.0 |
| 20260510015052 | 78 | 157 | 0.0 | 0.0 | 0.00 | 0.00 | 0.00 | 75 | 1001.0 |
| 20260510014953 | 78 | 157 | 0.0 | 0.0 | 0.00 | 0.00 | 0.00 | 75 | 1001.0 |
| 20260510014852 | 78 | 157 | 0.0 | 0.0 | 0.00 | 0.00 | 0.00 | 75 | 1001.0 |
| 20260510014752 | 78 | 157 | 0.0 | 0.0 | 0.00 | 0.00 | 0.00 | 76 | 1001.0 |
| 20260510014651 | 78 | 157 | 0.0 | 0.0 | 0.00 | 0.00 | 0.00 | 76 | 1001.0 |
| 20260510014553 | 78 | 157 | 0.0 | 0.0 | 0.00 | 0.00 | 0.00 | 76 | 1001.0 |
| 20260510014453 | 78 | 157 | 0.0 | 0.0 | 0.00 | 0.00 | 0.00 | 76 | 1000.9 |
| 20260510014352 | 78 | 157 | 0.0 | 0.0 | 0.00 | 0.00 | 0.00 | 76 | 1000.9 |
| 20260510014253 | 78 | 157 | 0.0 | 0.0 | 0.00 | 0.00 | 0.00 | 76 | 1000.9 |
| 20260510014152 | 78 | 157 | 0.0 | 0.0 | 0.00 | 0.00 | 0.00 | 76 | 1000.9 |
| 20260510014052 | 78 | 157 | 0.0 | 0.0 | 0.00 | 0.00 | 0.00 | 76 | 1000.9 |
| 20260510013952 | 78 | 157 | 0.0 | 0.0 | 0.00 | 0.00 | 0.00 | 76 | 1000.9 |
| 20260510013851 | 78 | 157 | 0.0 | 0.0 | 0.00 | 0.00 | 0.00 | 76 | 1000.9 |
| 20260510013753 | 78 | 157 | 0.0 | 0.0 | 0.00 | 0.00 | 0.00 | 77 | 1000.9 |
| 20260510013653 | 78 | 157 | 0.0 | 0.0 | 0.00 | 0.00 | 0.00 | 77 | 1001.0 |
| 20260510013553 | 78 | 157 | 0.0 | 0.0 | 0.00 | 0.00 | 0.00 | 77 | 1000.9 |
| 20260510013452 | 79 | 157 | 0.0 | 0.0 | 0.00 | 0.00 | 0.00 | 77 | 1000.8 |
| 20260510013352 | 79 | 157 | 0.0 | 0.0 | 0.00 | 0.00 | 0.00 | 77 | 1000.8 |
| 20260510013252 | 79 | 157 | 0.0 | 0.0 | 0.00 | 0.00 | 0.00 | 77 | 1000.7 |
| 20260510013153 | 79 | 157 | 0.0 | 0.0 | 0.00 | 0.00 | 0.00 | 77 | 1000.8 |
| 20260510013053 | 79 | 157 | 0.0 | 0.0 | 0.00 | 0.00 | 0.00 | 77 | 1000.8 |
| 20260510012952 | 79 | 157 | 0.0 | 0.0 | 0.00 | 0.00 | 0.00 | 77 | 1000.9 |
| 20260510012851 | 79 | 157 | 0.0 | 0.0 | 0.00 | 0.00 | 0.00 | 78 | 1000.9 |
| 20260510012752 | 79 | 157 | 0.0 | 0.0 | 0.00 | 0.00 | 0.00 | 78 | 1000.9 |
| 20260510012652 | 79 | 157 | 0.0 | 0.0 | 0.00 | 0.00 | 0.00 | 78 | 1000.9 |
| 20260510012552 | 79 | 157 | 0.0 | 0.0 | 0.00 | 0.00 | 0.00 | 78 | 1000.7 |
| 20260510012447 | 79 | 157 | 0.0 | 0.0 | 0.00 | 0.00 | 0.00 | 79 | 1000.7 |
| 20260510012346 | 79 | 157 | 0.0 | 0.0 | 0.00 | 0.00 | 0.00 | 79 | 1000.7 |
| 20260510012245 | 79 | 157 | 0.0 | 0.0 | 0.00 | 0.00 | 0.00 | 79 | 1000.7 |
| 20260510012149 | 79 | 157 | 0.0 | 0.0 | 0.00 | 0.00 | 0.00 | 80 | 1000.7 |
| 20260510012037 | 79 | 157 | 0.0 | 0.0 | 0.00 | 0.00 | 0.00 | 80 | 1000.7 |
| 20260510011936 | 80 | 157 | 0.0 | 0.0 | 0.00 | 0.00 | 0.00 | 80 | 1000.6 |
| 20260510011832 | 80 | 157 | 0.0 | 0.0 | 0.00 | 0.00 | 0.00 | 80 | 1000.7 |
| 20260510011733 | 80 | 157 | 0.0 | 0.0 | 0.00 | 0.00 | 0.00 | 82 | 1000.5 |
| 20260510011633 | 80 | 157 | 0.0 | 0.0 | 0.00 | 0.00 | 0.00 | 82 | 1000.6 |
| 20260510011531 | 80 | 152 | 0.0 | 0.0 | 0.00 | 0.00 | 0.00 | 82 | 1000.6 |
| 20260510011432 | 80 | 152 | 0.0 | 0.0 | 0.00 | 0.00 | 0.00 | 82 | 1000.5 |
| 20260510011331 | 80 | 152 | 0.0 | 0.0 | 0.00 | 0.00 | 0.00 | 82 | 1000.5 |
| 20260510011232 | 80 | 152 | 0.0 | 0.0 | 0.00 | 0.00 | 0.00 | 83 | 1000.4 |
| 20260510011132 | 80 | 152 | 0.0 | 0.0 | 0.00 | 0.00 | 0.00 | 83 | 1000.4 |
| 20260510011033 | 80 | 152 | 0.0 | 0.0 | 0.00 | 0.00 | 0.00 | 83 | 1000.4 |
| 20260510010931 | 80 | 152 | 0.0 | 0.0 | 0.00 | 0.00 | 0.00 | 83 | 1000.4 |
| 20260510010832 | 81 | 152 | 0.0 | 0.0 | 0.00 | 0.00 | 0.00 | 83 | 1000.4 |
| 20260510010731 | 81 | 152 | 0.0 | 0.0 | 0.00 | 0.00 | 0.00 | 83 | 1000.3 |
| 20260510010630 | 81 | 152 | 0.0 | 0.0 | 0.00 | 0.00 | 0.00 | 83 | 1000.3 |
| 20260510010531 | 81 | 152 | 0.0 | 0.0 | 0.00 | 0.00 | 0.00 | 83 | 1000.3 |
| 20260510010431 | 81 | 152 | 0.0 | 0.0 | 0.00 | 0.00 | 0.00 | 83 | 1000.3 |
| 20260510010333 | 81 | 152 | 0.0 | 0.0 | 0.00 | 0.00 | 0.00 | 83 | 1000.2 |
| 20260510010231 | 81 | 152 | 0.0 | 0.0 | 0.00 | 0.00 | 0.00 | 84 | 1000.2 |
| 20260510010131 | 81 | 151 | 0.0 | 0.0 | 0.00 | 0.00 | 0.00 | 84 | 1000.1 |
| 20260510010031 | 81 | 152 | 0.0 | 0.0 | 0.00 | 0.00 | 0.00 | 84 | 1000.1 |
| 20260510005932 | 81 | 152 | 0.0 | 0.0 | 0.00 | 0.00 | 0.00 | 84 | 1000.1 |
| 20260510005831 | 81 | 149 | 0.0 | 0.0 | 0.00 | 0.00 | 0.00 | 84 | 1000.0 |
| 20260510005733 | 81 | 149 | 0.0 | 0.0 | 0.00 | 0.00 | 0.00 | 84 | 999.9 |
| 20260510005631 | 81 | 149 | 0.0 | 0.0 | 0.00 | 0.00 | 0.00 | 84 | 999.9 |
| 20260510005533 | 81 | 149 | 0.0 | 0.0 | 0.00 | 0.00 | 0.00 | 84 | 999.9 |
| 20260510005431 | 81 | 149 | 0.0 | 0.0 | 0.00 | 0.00 | 0.00 | 84 | 999.8 |
| 20260510005333 | 81 | 149 | 0.0 | 0.0 | 0.00 | 0.00 | 0.00 | 84 | 999.8 |
| 20260510005231 | 81 | 149 | 0.0 | 0.0 | 0.00 | 0.00 | 0.00 | 84 | 999.8 |
| 20260510005130 | 81 | 149 | 0.0 | 0.0 | 0.00 | 0.00 | 0.00 | 84 | 999.9 |
| 20260510005032 | 81 | 149 | 0.0 | 0.0 | 0.00 | 0.00 | 0.00 | 84 | 999.8 |
| 20260510004931 | 81 | 149 | 0.0 | 0.0 | 0.00 | 0.00 | 0.00 | 84 | 999.8 |
| 20260510004832 | 81 | 149 | 0.0 | 0.0 | 0.00 | 0.00 | 0.00 | 84 | 999.7 |
| 20260510004733 | 81 | 149 | 0.0 | 0.0 | 0.00 | 0.00 | 0.00 | 84 | 999.8 |
| 20260510004631 | 81 | 149 | 0.0 | 0.0 | 0.00 | 0.00 | 0.00 | 84 | 999.8 |
| 20260510004533 | 81 | 149 | 0.0 | 0.0 | 0.00 | 0.00 | 0.00 | 84 | 999.7 |
| 20260510004433 | 81 | 149 | 0.0 | 0.0 | 0.00 | 0.00 | 0.00 | 84 | 999.7 |
| 20260510004332 | 81 | 149 | 0.0 | 0.0 | 0.00 | 0.00 | 0.00 | 84 | 999.8 |
| 20260510004230 | 81 | 149 | 0.0 | 0.0 | 0.00 | 0.00 | 0.00 | 84 | 999.8 |
| 20260510004120 | 81 | 149 | 0.0 | 0.0 | 0.00 | 0.00 | 0.00 | 85 | 999.8 |
| 20260510004019 | 81 | 149 | 0.0 | 0.0 | 0.00 | 0.00 | 0.00 | 85 | 999.8 |
| 20260510003921 | 81 | 149 | 0.0 | 0.0 | 0.00 | 0.00 | 0.00 | 85 | 999.8 |
| 20260510003818 | 82 | 149 | 0.0 | 0.0 | 0.00 | 0.00 | 0.00 | 85 | 999.8 |
| 20260510003706 | 82 | 149 | 0.0 | 0.0 | 0.00 | 0.00 | 0.00 | 85 | 999.8 |
| 20260510003605 | 82 | 149 | 0.0 | 0.0 | 0.00 | 0.00 | 0.00 | 85 | 999.9 |
| 20260510003505 | 82 | 149 | 0.0 | 0.0 | 0.00 | 0.00 | 0.00 | 85 | 999.9 |
| 20260510003403 | 82 | 149 | 0.0 | 0.0 | 0.00 | 0.00 | 0.00 | 85 | 999.9 |
| 20260510003304 | 82 | 149 | 0.0 | 0.0 | 0.00 | 0.00 | 0.00 | 85 | 999.9 |
| 20260510003202 | 82 | 149 | 0.0 | 0.0 | 0.00 | 0.00 | 0.00 | 85 | 1000.0 |
| 20260510003103 | 82 | 149 | 0.0 | 0.0 | 0.00 | 0.00 | 0.00 | 85 | 1000.0 |
| 20260510003003 | 82 | 149 | 0.0 | 0.0 | 0.00 | 0.00 | 0.00 | 85 | 1000.0 |
| 20260510002904 | 82 | 149 | 0.0 | 0.0 | 0.00 | 0.00 | 0.00 | 85 | 1000.0 |
| 20260510002804 | 82 | 149 | 0.0 | 0.0 | 0.00 | 0.00 | 0.00 | 85 | 999.9 |
| 20260510002703 | 82 | 149 | 0.0 | 0.0 | 0.00 | 0.00 | 0.00 | 85 | 999.9 |
| 20260510002601 | 81 | 149 | 0.0 | 0.0 | 0.00 | 0.00 | 0.00 | 85 | 999.9 |
| 20260510002505 | 81 | 149 | 0.0 | 0.0 | 0.00 | 0.00 | 0.00 | 85 | 999.9 |
| 20260510002404 | 81 | 149 | 0.0 | 0.0 | 0.00 | 0.00 | 0.00 | 85 | 999.9 |
| 20260510002306 | 81 | 149 | 0.0 | 0.0 | 0.00 | 0.00 | 0.00 | 85 | 999.9 |
| 20260510002202 | 81 | 149 | 0.0 | 0.0 | 0.00 | 0.00 | 0.00 | 85 | 999.9 |
| 20260510002104 | 81 | 149 | 0.0 | 0.0 | 0.00 | 0.00 | 0.00 | 85 | 999.9 |
| 20260510002006 | 81 | 149 | 0.0 | 0.0 | 0.00 | 0.00 | 0.00 | 85 | 999.8 |
| 20260510001902 | 81 | 149 | 0.0 | 0.0 | 0.00 | 0.00 | 0.00 | 85 | 999.9 |
| 20260510001803 | 81 | 149 | 0.0 | 0.0 | 0.00 | 0.00 | 0.00 | 85 | 999.8 |
| 20260510001703 | 81 | 149 | 0.0 | 0.0 | 0.00 | 0.00 | 0.00 | 85 | 999.8 |
| 20260510001556 | 81 | 149 | 0.0 | 0.0 | 0.00 | 0.00 | 0.00 | 85 | 999.8 |
| 20260510001455 | 81 | 149 | 0.0 | 0.0 | 0.00 | 0.00 | 0.00 | 85 | 999.7 |
| 20260510001351 | 81 | 149 | 0.0 | 0.0 | 0.00 | 0.00 | 0.00 | 85 | 999.6 |
| 20260510001250 | 81 | 149 | 0.0 | 0.0 | 0.00 | 0.00 | 0.00 | 85 | 999.6 |
| 20260510001150 | 81 | 149 | 0.0 | 0.0 | 0.00 | 0.00 | 0.00 | 85 | 999.7 |
| 20260510001051 | 81 | 149 | 0.0 | 0.0 | 0.00 | 0.00 | 0.00 | 85 | 999.7 |
| 20260510000951 | 81 | 149 | 0.0 | 0.0 | 0.00 | 0.00 | 0.00 | 85 | 999.7 |
| 20260510000850 | 81 | 149 | 0.0 | 0.0 | 0.00 | 0.00 | 0.00 | 85 | 999.7 |
| 20260510000750 | 81 | 149 | 0.0 | 0.0 | 0.00 | 0.00 | 0.00 | 85 | 999.7 |
| 20260510000649 | 81 | 149 | 0.0 | 0.0 | 0.00 | 0.00 | 0.00 | 85 | 999.7 |
| 20260510000551 | 81 | 149 | 0.0 | 0.0 | 0.00 | 0.00 | 0.00 | 85 | 999.7 |
| 20260510000445 | 81 | 149 | 0.0 | 0.0 | 0.00 | 0.00 | 0.00 | 85 | 999.6 |
| 20260510000341 | 81 | 149 | 0.0 | 0.0 | 0.00 | 0.00 | 0.00 | 85 | 999.6 |
| 20260510000231 | 81 | 151 | 0.0 | 0.0 | 0.00 | 0.00 | 0.00 | 85 | 999.6 |
| 20260510000131 | 81 | 151 | 0.0 | 0.0 | 0.00 | 0.00 | 0.00 | 85 | 999.6 |
| 20260510000032 | 81 | 151 | 0.0 | 0.0 | 0.00 | 0.00 | 0.00 | 85 | 999.6 |
| 20260509235931 | 81 | 151 | 0.0 | 0.0 | 0.00 | 0.00 | 0.00 | 85 | 999.6 |
| 20260509235831 | 81 | 151 | 0.0 | 0.0 | 0.00 | 0.00 | 0.00 | 85 | 999.6 |
| 20260509235732 | 81 | 151 | 0.0 | 0.0 | 0.00 | 0.00 | 0.00 | 85 | 999.6 |
| 20260509235631 | 81 | 151 | 0.0 | 0.0 | 0.00 | 0.00 | 0.00 | 85 | 999.6 |
| 20260509235533 | 81 | 151 | 0.0 | 0.0 | 0.00 | 0.00 | 0.00 | 85 | 999.6 |
| 20260509235431 | 81 | 151 | 0.0 | 0.0 | 0.00 | 0.00 | 0.00 | 85 | 999.6 |
| 20260509235331 | 81 | 151 | 0.0 | 0.0 | 0.00 | 0.00 | 0.00 | 85 | 999.5 |
| 20260509235232 | 81 | 151 | 0.0 | 0.0 | 0.00 | 0.00 | 0.00 | 84 | 999.4 |
| 20260509235131 | 81 | 151 | 0.0 | 0.0 | 0.00 | 0.00 | 0.00 | 84 | 999.5 |
| 20260509235031 | 81 | 151 | 0.0 | 0.0 | 0.00 | 0.00 | 0.00 | 84 | 999.5 |
| 20260509234933 | 81 | 151 | 0.0 | 0.0 | 0.00 | 0.00 | 0.00 | 84 | 999.5 |
| 20260509234831 | 81 | 151 | 0.0 | 0.0 | 0.00 | 0.00 | 0.00 | 84 | 999.5 |
| 20260509234732 | 81 | 151 | 0.0 | 0.0 | 0.00 | 0.00 | 0.00 | 84 | 999.5 |
| 20260509234631 | 81 | 151 | 0.0 | 0.0 | 0.00 | 0.00 | 0.00 | 84 | 999.5 |
| 20260509234532 | 81 | 151 | 0.0 | 0.0 | 0.00 | 0.00 | 0.00 | 84 | 999.5 |
| 20260509234432 | 81 | 151 | 0.0 | 0.0 | 0.00 | 0.00 | 0.00 | 84 | 999.5 |
| 20260509234331 | 81 | 151 | 0.0 | 0.0 | 0.00 | 0.00 | 0.00 | 84 | 999.5 |
| 20260509234233 | 81 | 151 | 0.0 | 0.0 | 0.00 | 0.00 | 0.00 | 84 | 999.5 |
| 20260509234138 | 81 | 151 | 0.0 | 0.0 | 0.00 | 0.00 | 0.00 | 84 | 999.5 |
| 20260509234020 | 81 | 151 | 0.0 | 0.0 | 0.00 | 0.00 | 0.00 | 84 | 999.6 |
| 20260509233917 | 81 | 151 | 0.0 | 0.0 | 0.00 | 0.00 | 0.00 | 84 | 999.6 |
| 20260509233815 | 81 | 151 | 0.0 | 0.0 | 0.00 | 0.00 | 0.00 | 84 | 999.6 |
| 20260509233715 | 81 | 151 | 0.0 | 0.0 | 0.00 | 0.00 | 0.00 | 84 | 999.6 |
| 20260509233615 | 81 | 151 | 0.0 | 0.0 | 0.00 | 0.00 | 0.00 | 84 | 999.6 |
| 20260509233515 | 81 | 151 | 0.0 | 0.0 | 0.00 | 0.00 | 0.00 | 84 | 999.7 |
| 20260509233411 | 81 | 151 | 0.0 | 0.0 | 0.00 | 0.00 | 0.00 | 84 | 999.6 |
| 20260509233307 | 81 | 151 | 0.0 | 0.0 | 0.00 | 0.00 | 0.00 | 84 | 999.6 |
| 20260509233204 | 81 | 151 | 0.0 | 0.0 | 0.00 | 0.00 | 0.00 | 84 | 999.6 |
| 20260509233103 | 81 | 151 | 0.0 | 0.0 | 0.00 | 0.00 | 0.00 | 84 | 999.6 |
| 20260509233004 | 81 | 151 | 0.0 | 0.0 | 0.00 | 0.00 | 0.00 | 84 | 999.5 |
| 20260509232903 | 81 | 151 | 0.0 | 0.0 | 0.00 | 0.00 | 0.00 | 84 | 999.6 |
| 20260509232803 | 81 | 151 | 0.0 | 0.0 | 0.00 | 0.00 | 0.00 | 84 | 999.6 |
| 20260509232704 | 81 | 151 | 0.0 | 0.0 | 0.00 | 0.00 | 0.00 | 84 | 999.6 |
| 20260509232602 | 81 | 151 | 0.0 | 0.0 | 0.00 | 0.00 | 0.00 | 84 | 999.7 |
| 20260509232503 | 82 | 151 | 0.0 | 0.0 | 0.00 | 0.00 | 0.00 | 84 | 999.6 |
| 20260509232402 | 82 | 151 | 0.0 | 0.0 | 0.00 | 0.00 | 0.00 | 84 | 999.7 |
| 20260509232306 | 82 | 151 | 0.0 | 0.0 | 0.00 | 0.00 | 0.00 | 84 | 999.6 |
| 20260509232204 | 82 | 151 | 0.0 | 0.0 | 0.00 | 0.00 | 0.00 | 84 | 999.6 |
| 20260509232103 | 82 | 151 | 0.0 | 0.0 | 0.00 | 0.00 | 0.00 | 84 | 999.6 |
| 20260509232004 | 82 | 151 | 0.0 | 0.0 | 0.00 | 0.00 | 0.00 | 84 | 999.6 |
| 20260509231901 | 82 | 151 | 0.0 | 0.0 | 0.00 | 0.00 | 0.00 | 84 | 999.6 |
| 20260509231802 | 82 | 151 | 0.0 | 0.0 | 0.00 | 0.00 | 0.00 | 84 | 999.6 |
| 20260509231703 | 82 | 151 | 0.0 | 0.0 | 0.00 | 0.00 | 0.00 | 84 | 999.7 |
| 20260509231604 | 82 | 151 | 0.0 | 0.0 | 0.00 | 0.00 | 0.00 | 84 | 999.7 |
| 20260509231503 | 82 | 151 | 0.0 | 0.0 | 0.00 | 0.00 | 0.00 | 83 | 999.7 |
| 20260509231403 | 82 | 151 | 0.0 | 0.0 | 0.00 | 0.00 | 0.00 | 83 | 999.7 |
| 20260509231302 | 82 | 151 | 0.0 | 0.0 | 0.00 | 0.00 | 0.00 | 83 | 999.7 |
| 20260509231206 | 82 | 151 | 0.0 | 0.0 | 0.00 | 0.00 | 0.00 | 83 | 999.6 |
| 20260509231102 | 82 | 151 | 0.0 | 0.0 | 0.00 | 0.00 | 0.00 | 83 | 999.5 |
| 20260509231003 | 82 | 151 | 0.0 | 0.0 | 0.00 | 0.00 | 0.00 | 83 | 999.5 |
| 20260509230904 | 82 | 151 | 0.0 | 0.0 | 0.00 | 0.00 | 0.00 | 83 | 999.6 |
| 20260509230804 | 82 | 151 | 0.0 | 0.0 | 0.00 | 0.00 | 0.00 | 83 | 999.5 |
| 20260509230704 | 82 | 151 | 0.0 | 0.0 | 0.00 | 0.00 | 0.00 | 83 | 999.6 |
| 20260509230604 | 82 | 151 | 0.0 | 0.0 | 0.00 | 0.00 | 0.00 | 83 | 999.6 |
| 20260509230502 | 82 | 151 | 0.0 | 0.0 | 0.00 | 0.00 | 0.00 | 83 | 999.5 |
| 20260509230402 | 82 | 151 | 0.0 | 0.0 | 0.00 | 0.00 | 0.00 | 83 | 999.4 |
| 20260509230303 | 82 | 151 | 0.0 | 0.0 | 0.00 | 0.00 | 0.00 | 82 | 999.4 |
| 20260509230203 | 82 | 151 | 0.0 | 0.0 | 0.00 | 0.00 | 0.00 | 82 | 999.4 |
| 20260509230103 | 82 | 151 | 0.0 | 0.0 | 0.00 | 0.00 | 0.00 | 82 | 999.5 |
| 20260509230003 | 82 | 151 | 0.0 | 0.0 | 0.00 | 0.00 | 0.00 | 82 | 999.4 |
| 20260509225903 | 82 | 151 | 0.0 | 0.0 | 0.00 | 0.00 | 0.00 | 82 | 999.4 |
| 20260509225803 | 82 | 151 | 0.0 | 0.0 | 0.00 | 0.00 | 0.00 | 82 | 999.5 |
| 20260509225705 | 82 | 151 | 0.0 | 0.0 | 0.00 | 0.00 | 0.00 | 81 | 999.5 |
| 20260509225603 | 82 | 151 | 0.0 | 0.0 | 0.00 | 0.00 | 0.00 | 81 | 999.5 |
| 20260509225503 | 82 | 151 | 0.0 | 0.0 | 0.00 | 0.00 | 0.00 | 81 | 999.6 |
| 20260509225404 | 82 | 151 | 0.0 | 0.0 | 0.00 | 0.00 | 0.00 | 81 | 999.5 |
| 20260509225305 | 82 | 151 | 0.0 | 0.0 | 0.00 | 0.00 | 0.00 | 81 | 999.5 |
| 20260509225204 | 82 | 151 | 0.0 | 0.0 | 0.00 | 0.00 | 0.00 | 80 | 999.4 |
| 20260509225102 | 82 | 151 | 0.0 | 0.0 | 0.00 | 0.00 | 0.00 | 80 | 999.4 |
| 20260509225005 | 82 | 151 | 0.0 | 0.0 | 0.00 | 0.00 | 0.00 | 80 | 999.5 |
| 20260509224902 | 82 | 151 | 0.0 | 0.0 | 0.00 | 0.00 | 0.00 | 80 | 999.4 |
| 20260509224802 | 82 | 151 | 0.0 | 0.0 | 0.00 | 0.00 | 0.00 | 80 | 999.3 |
| 20260509224703 | 83 | 151 | 0.0 | 0.0 | 0.00 | 0.00 | 0.00 | 80 | 999.3 |
| 20260509224604 | 83 | 151 | 0.0 | 0.0 | 0.00 | 0.00 | 0.00 | 80 | 999.4 |
| 20260509224503 | 83 | 151 | 0.0 | 0.0 | 0.00 | 0.00 | 0.00 | 80 | 999.4 |
| 20260509224403 | 83 | 151 | 0.0 | 0.0 | 0.00 | 0.00 | 0.00 | 80 | 999.4 |
| 20260509224304 | 83 | 151 | 0.0 | 0.0 | 0.00 | 0.00 | 0.00 | 80 | 999.4 |
| 20260509224147 | 83 | 151 | 0.0 | 0.0 | 0.00 | 0.00 | 0.00 | 80 | 999.4 |
| 20260509224047 | 83 | 151 | 0.0 | 0.0 | 0.00 | 0.00 | 0.00 | 80 | 999.3 |
| 20260509223949 | 83 | 151 | 0.0 | 0.0 | 0.00 | 0.00 | 0.00 | 79 | 999.4 |
| 20260509223847 | 83 | 151 | 0.0 | 0.0 | 0.00 | 0.00 | 0.00 | 79 | 999.3 |
| 20260509223749 | 83 | 151 | 0.0 | 0.0 | 0.00 | 0.00 | 0.00 | 78 | 999.3 |
| 20260509223649 | 83 | 151 | 0.0 | 0.0 | 0.00 | 0.00 | 0.00 | 78 | 999.4 |
| 20260509223547 | 83 | 151 | 0.0 | 0.0 | 0.00 | 0.00 | 0.00 | 78 | 999.4 |
| 20260509223448 | 83 | 151 | 0.0 | 0.0 | 0.00 | 0.00 | 0.00 | 78 | 999.4 |
| 20260509223347 | 83 | 151 | 0.0 | 0.0 | 0.00 | 0.00 | 0.00 | 78 | 999.4 |
| 20260509223248 | 84 | 151 | 0.0 | 0.0 | 0.00 | 0.00 | 0.00 | 77 | 999.4 |
| 20260509223147 | 84 | 151 | 0.0 | 0.0 | 0.00 | 0.00 | 0.00 | 77 | 999.4 |
| 20260509223047 | 84 | 151 | 0.0 | 0.0 | 0.00 | 0.00 | 0.00 | 78 | 999.4 |
| 20260509222947 | 84 | 151 | 0.0 | 0.0 | 0.00 | 0.00 | 0.00 | 78 | 999.4 |
| 20260509222848 | 84 | 151 | 0.0 | 0.0 | 0.00 | 0.00 | 0.00 | 77 | 999.3 |
| 20260509222747 | 84 | 151 | 0.0 | 0.0 | 0.00 | 0.00 | 0.00 | 76 | 999.2 |
| 20260509222648 | 84 | 151 | 0.0 | 0.0 | 0.00 | 0.00 | 0.00 | 76 | 999.2 |
| 20260509222548 | 84 | 151 | 0.0 | 0.0 | 0.00 | 0.00 | 0.00 | 76 | 999.2 |
| 20260509222447 | 84 | 151 | 0.0 | 0.0 | 0.00 | 0.00 | 0.00 | 76 | 999.2 |
| 20260509222347 | 84 | 151 | 0.0 | 0.0 | 0.00 | 0.00 | 0.00 | 76 | 999.2 |
| 20260509222243 | 85 | 151 | 0.0 | 0.0 | 0.00 | 0.00 | 0.00 | 76 | 999.2 |
| 20260509222139 | 85 | 151 | 0.0 | 0.0 | 0.00 | 0.00 | 0.00 | 76 | 999.2 |
| 20260509222037 | 85 | 151 | 0.0 | 0.0 | 0.00 | 0.00 | 0.00 | 76 | 999.2 |
| 20260509221934 | 85 | 151 | 0.0 | 0.0 | 0.00 | 0.00 | 0.00 | 76 | 999.2 |
| 20260509221833 | 85 | 151 | 0.0 | 0.0 | 0.00 | 0.00 | 0.00 | 74 | 999.2 |
| 20260509221732 | 85 | 151 | 0.0 | 0.0 | 0.00 | 0.00 | 0.00 | 74 | 999.2 |
| 20260509221629 | 85 | 151 | 0.0 | 0.0 | 0.00 | 0.00 | 0.00 | 74 | 999.1 |
| 20260509221530 | 85 | 151 | 0.0 | 0.0 | 0.00 | 0.00 | 0.00 | 73 | 999.1 |
| 20260509221425 | 86 | 151 | 0.0 | 0.0 | 0.00 | 0.00 | 0.00 | 73 | 999.1 |
| 20260509221320 | 86 | 151 | 0.0 | 0.0 | 0.00 | 0.00 | 0.00 | 73 | 999.1 |
| 20260509221217 | 86 | 151 | 0.0 | 0.0 | 0.00 | 0.00 | 0.00 | 72 | 999.1 |
| 20260509221115 | 86 | 151 | 0.0 | 0.0 | 0.00 | 0.00 | 0.00 | 72 | 999.1 |
| 20260509221020 | 86 | 151 | 0.0 | 0.0 | 0.00 | 0.00 | 0.00 | 73 | 999.1 |
| 20260509220914 | 86 | 151 | 0.0 | 0.0 | 0.00 | 0.00 | 0.00 | 73 | 999.2 |
| 20260509220813 | 86 | 151 | 0.0 | 0.0 | 0.00 | 0.00 | 0.00 | 73 | 999.2 |
| 20260509220711 | 86 | 151 | 0.0 | 0.0 | 0.00 | 0.00 | 0.00 | 73 | 999.2 |
| 20260509220607 | 87 | 151 | 0.0 | 0.0 | 0.00 | 0.00 | 0.00 | 74 | 999.1 |
| 20260509220507 | 87 | 151 | 0.0 | 0.0 | 0.00 | 0.00 | 0.00 | 73 | 999.2 |
| 20260509220407 | 87 | 151 | 0.0 | 0.0 | 0.00 | 0.00 | 0.00 | 73 | 999.2 |
| 20260509220309 | 87 | 151 | 0.0 | 0.0 | 0.00 | 0.00 | 0.00 | 71 | 999.2 |
| 20260509220207 | 87 | 151 | 0.0 | 0.0 | 0.00 | 0.00 | 0.00 | 71 | 999.2 |
| 20260509220103 | 87 | 151 | 0.0 | 0.0 | 0.00 | 0.00 | 0.00 | 71 | 999.2 |
| 20260509220003 | 87 | 151 | 0.0 | 0.0 | 0.00 | 0.00 | 0.00 | 72 | 999.3 |
| 20260509215904 | 87 | 151 | 0.0 | 0.0 | 0.00 | 0.00 | 0.00 | 72 | 999.3 |
| 20260509215802 | 87 | 151 | 0.0 | 0.0 | 0.00 | 0.00 | 0.00 | 72 | 999.2 |
| 20260509215701 | 87 | 151 | 0.0 | 0.0 | 0.00 | 0.00 | 0.00 | 72 | 999.3 |
| 20260509215603 | 87 | 151 | 0.0 | 0.0 | 0.00 | 0.00 | 0.00 | 72 | 999.3 |
| 20260509215502 | 87 | 151 | 0.0 | 0.0 | 0.00 | 0.00 | 0.00 | 73 | 999.2 |
| 20260509215404 | 86 | 151 | 0.0 | 0.0 | 0.00 | 0.00 | 0.00 | 73 | 999.3 |
| 20260509215306 | 86 | 151 | 0.0 | 0.0 | 0.00 | 0.00 | 0.00 | 73 | 999.3 |
| 20260509215203 | 86 | 151 | 0.0 | 0.0 | 0.00 | 0.00 | 0.00 | 73 | 999.3 |
| 20260509215102 | 86 | 151 | 0.0 | 0.0 | 0.00 | 0.00 | 0.00 | 73 | 999.3 |
| 20260509215003 | 86 | 151 | 0.0 | 0.0 | 0.00 | 0.00 | 0.00 | 72 | 999.3 |
| 20260509214903 | 86 | 151 | 0.0 | 0.0 | 0.00 | 0.00 | 0.00 | 72 | 999.3 |
| 20260509214804 | 87 | 151 | 0.0 | 0.0 | 0.00 | 0.00 | 0.00 | 72 | 999.3 |
| 20260509214708 | 87 | 151 | 0.0 | 0.0 | 0.00 | 0.00 | 0.00 | 72 | 999.3 |
| 20260509214603 | 87 | 151 | 0.0 | 0.0 | 0.00 | 0.00 | 0.00 | 72 | 999.3 |
| 20260509214505 | 87 | 151 | 0.0 | 0.0 | 0.00 | 0.00 | 0.00 | 72 | 999.4 |
| 20260509214403 | 87 | 151 | 0.0 | 0.0 | 0.00 | 0.00 | 0.00 | 72 | 999.3 |
| 20260509214304 | 87 | 151 | 0.0 | 0.0 | 0.00 | 0.00 | 0.00 | 72 | 999.4 |
| 20260509214203 | 87 | 151 | 0.0 | 0.0 | 0.00 | 0.00 | 0.00 | 72 | 999.4 |
| 20260509214102 | 87 | 151 | 0.0 | 0.0 | 0.00 | 0.00 | 0.00 | 73 | 999.4 |
| 20260509214003 | 87 | 151 | 0.0 | 0.0 | 0.00 | 0.00 | 0.00 | 74 | 999.4 |
| 20260509213903 | 87 | 151 | 0.0 | 0.0 | 0.00 | 0.00 | 0.00 | 74 | 999.4 |
| 20260509213804 | 87 | 124 | 0.0 | 0.0 | 0.00 | 0.00 | 0.00 | 75 | 999.4 |
| 20260509213703 | 86 | 124 | 0.0 | 0.0 | 0.00 | 0.00 | 0.00 | 74 | 999.4 |
| 20260509213604 | 86 | 124 | 0.0 | 0.0 | 0.00 | 0.00 | 0.00 | 74 | 999.3 |
| 20260509213505 | 86 | 124 | 0.0 | 0.0 | 0.00 | 0.00 | 0.00 | 73 | 999.4 |
| 20260509213403 | 86 | 124 | 0.0 | 0.0 | 0.00 | 0.00 | 0.00 | 73 | 999.3 |
| 20260509213304 | 86 | 124 | 0.0 | 0.0 | 0.00 | 0.00 | 0.00 | 73 | 999.3 |
| 20260509213204 | 86 | 124 | 0.0 | 0.0 | 0.00 | 0.00 | 0.00 | 73 | 999.3 |
| 20260509213102 | 86 | 124 | 0.0 | 0.0 | 0.00 | 0.00 | 0.00 | 71 | 999.3 |
| 20260509213003 | 87 | 124 | 0.0 | 0.0 | 0.00 | 0.00 | 0.00 | 71 | 999.2 |
| 20260509212902 | 87 | 124 | 0.0 | 0.0 | 0.00 | 0.00 | 0.00 | 70 | 999.2 |
| 20260509212802 | 87 | 124 | 0.0 | 0.0 | 0.00 | 0.00 | 0.00 | 70 | 999.3 |
| 20260509212702 | 87 | 124 | 0.0 | 0.0 | 0.00 | 0.00 | 0.00 | 70 | 999.2 |
| 20260509212603 | 87 | 124 | 0.0 | 0.0 | 0.00 | 0.00 | 0.00 | 70 | 999.2 |
| 20260509212503 | 87 | 124 | 0.0 | 0.0 | 0.00 | 0.00 | 0.00 | 70 | 999.2 |
| 20260509212403 | 87 | 124 | 0.0 | 0.0 | 0.00 | 0.00 | 0.00 | 69 | 999.2 |
| 20260509212305 | 88 | 124 | 0.0 | 0.0 | 0.00 | 0.00 | 0.00 | 71 | 999.2 |
| 20260509212202 | 88 | 124 | 0.0 | 0.0 | 0.00 | 0.00 | 0.00 | 71 | 999.2 |
| 20260509212103 | 88 | 124 | 0.0 | 0.0 | 0.00 | 0.00 | 0.00 | 71 | 999.2 |
| 20260509212003 | 88 | 123 | 0.0 | 0.0 | 0.00 | 0.00 | 0.00 | 70 | 999.2 |
| 20260509211904 | 88 | 121 | 0.0 | 0.0 | 0.00 | 0.00 | 0.00 | 69 | 999.2 |
| 20260509211803 | 88 | 121 | 0.0 | 0.0 | 0.00 | 0.00 | 0.00 | 69 | 999.2 |
| 20260509211647 | 88 | 117 | 0.0 | 0.0 | 0.00 | 0.00 | 0.00 | 69 | 999.2 |
| 20260509211547 | 88 | 118 | 0.0 | 0.0 | 0.00 | 0.00 | 0.00 | 69 | 999.3 |
| 20260509211445 | 88 | 118 | 0.0 | 0.0 | 0.00 | 0.00 | 0.00 | 69 | 999.2 |
| 20260509211346 | 88 | 207 | 0.0 | 0.0 | 0.00 | 0.00 | 0.00 | 69 | 999.3 |
| 20260509211247 | 88 | 207 | 0.0 | 0.0 | 0.00 | 0.00 | 0.00 | 69 | 999.2 |
| 20260509211156 | 88 | 207 | 0.0 | 0.0 | 0.00 | 0.00 | 0.00 | 69 | 999.3 |
| 20260509211045 | 88 | 207 | 0.0 | 0.0 | 0.00 | 0.00 | 0.00 | 69 | 999.3 |
| 20260509210947 | 88 | 207 | 0.0 | 0.0 | 0.00 | 0.00 | 0.00 | 71 | 999.4 |
| 20260509210845 | 88 | 207 | 0.0 | 0.0 | 0.00 | 0.00 | 0.00 | 71 | 999.3 |
| 20260509210747 | 88 | 207 | 0.0 | 0.0 | 0.00 | 0.00 | 0.00 | 71 | 999.4 |
| 20260509210646 | 88 | 206 | 0.0 | 0.0 | 0.00 | 0.00 | 0.00 | 71 | 999.4 |
| 20260509210547 | 88 | 206 | 0.0 | 0.0 | 0.00 | 0.00 | 0.00 | 71 | 999.4 |
| 20260509210445 | 88 | 206 | 0.0 | 0.0 | 0.00 | 0.00 | 0.00 | 71 | 999.4 |
| 20260509210347 | 88 | 209 | 0.0 | 0.0 | 0.00 | 0.00 | 0.00 | 71 | 999.5 |
| 20260509210247 | 88 | 209 | 0.0 | 0.0 | 0.00 | 0.00 | 0.00 | 72 | 999.5 |
| 20260509210147 | 87 | 209 | 0.0 | 0.0 | 0.00 | 0.00 | 0.00 | 71 | 999.5 |
| 20260509210046 | 87 | 209 | 0.0 | 0.0 | 0.00 | 0.00 | 0.00 | 71 | 999.5 |
| 20260509205946 | 88 | 209 | 0.0 | 0.0 | 0.00 | 0.00 | 0.00 | 71 | 999.6 |
| 20260509205845 | 88 | 209 | 0.0 | 0.0 | 0.00 | 0.00 | 0.00 | 71 | 999.5 |
| 20260509205745 | 88 | 209 | 0.0 | 0.0 | 0.00 | 0.00 | 0.00 | 71 | 999.5 |
| 20260509205647 | 87 | 209 | 0.0 | 0.0 | 0.00 | 0.00 | 0.00 | 71 | 999.6 |
| 20260509205545 | 87 | 213 | 0.0 | 0.0 | 0.00 | 0.00 | 0.00 | 71 | 999.6 |
| 20260509205448 | 87 | 213 | 0.0 | 0.0 | 0.00 | 0.00 | 0.00 | 72 | 999.6 |
| 20260509205345 | 87 | 213 | 0.0 | 0.0 | 0.00 | 0.00 | 0.00 | 72 | 999.7 |
| 20260509205246 | 87 | 213 | 0.0 | 0.0 | 0.00 | 0.00 | 0.00 | 72 | 999.7 |
| 20260509205146 | 87 | 213 | 0.0 | 0.0 | 0.00 | 0.00 | 0.00 | 71 | 999.7 |
| 20260509205045 | 87 | 213 | 0.0 | 0.0 | 0.00 | 0.00 | 0.00 | 71 | 999.7 |
| 20260509204947 | 87 | 213 | 0.0 | 0.0 | 0.00 | 0.00 | 0.00 | 71 | 999.7 |
| 20260509204844 | 87 | 213 | 0.0 | 0.0 | 0.00 | 0.00 | 0.00 | 71 | 999.7 |
| 20260509204748 | 87 | 213 | 0.0 | 0.0 | 0.00 | 0.00 | 0.00 | 71 | 999.8 |
| 20260509204645 | 88 | 204 | 0.0 | 0.0 | 0.00 | 0.00 | 0.00 | 72 | 999.8 |
| 20260509204545 | 87 | 204 | 0.0 | 0.0 | 0.00 | 0.00 | 0.00 | 72 | 999.7 |
| 20260509204447 | 87 | 207 | 0.0 | 0.0 | 0.00 | 0.00 | 0.00 | 73 | 999.8 |
| 20260509204345 | 87 | 207 | 0.0 | 0.0 | 0.00 | 0.00 | 0.00 | 72 | 999.7 |
| 20260509204247 | 87 | 209 | 0.0 | 0.0 | 0.00 | 0.00 | 0.00 | 71 | 999.8 |
| 20260509204147 | 87 | 234 | 0.0 | 0.0 | 0.00 | 0.00 | 0.00 | 72 | 999.8 |
| 20260509204047 | 87 | 272 | 0.0 | 0.0 | 0.00 | 0.00 | 0.00 | 72 | 999.8 |
| 20260509203945 | 87 | 262 | 0.0 | 0.0 | 0.00 | 0.00 | 0.00 | 72 | 999.9 |
| 20260509203847 | 87 | 114 | 0.0 | 0.0 | 0.00 | 0.00 | 0.00 | 72 | 999.8 |
| 20260509203744 | 87 | 114 | 0.0 | 0.0 | 0.00 | 0.00 | 0.00 | 71 | 999.9 |
| 20260509203645 | 87 | 114 | 0.0 | 0.0 | 0.00 | 0.00 | 0.00 | 71 | 999.9 |
| 20260509203548 | 87 | 155 | 0.0 | 0.0 | 0.00 | 0.00 | 0.00 | 71 | 999.9 |
| 20260509203446 | 87 | 155 | 0.0 | 0.0 | 0.00 | 0.00 | 0.00 | 71 | 999.9 |
| 20260509203347 | 87 | 155 | 0.0 | 0.0 | 0.00 | 0.00 | 0.00 | 70 | 999.9 |
| 20260509203245 | 87 | 155 | 0.0 | 0.0 | 0.00 | 0.00 | 0.00 | 70 | 999.9 |
| 20260509203146 | 87 | 155 | 0.0 | 0.0 | 0.00 | 0.00 | 0.00 | 70 | 999.9 |
| 20260509203045 | 87 | 131 | 0.0 | 0.0 | 0.00 | 0.00 | 0.00 | 72 | 1000.0 |
| 20260509202945 | 87 | 131 | 0.0 | 0.0 | 0.00 | 0.00 | 0.00 | 72 | 1000.0 |
| 20260509202845 | 87 | 127 | 0.0 | 0.0 | 0.00 | 0.00 | 0.00 | 72 | 1000.0 |
| 20260509202744 | 87 | 228 | 0.0 | 0.0 | 0.00 | 0.00 | 0.00 | 73 | 999.9 |
| 20260509202645 | 87 | 228 | 0.0 | 0.0 | 0.00 | 0.00 | 0.00 | 73 | 1000.0 |
| 20260509202544 | 87 | 228 | 0.0 | 0.0 | 0.00 | 0.00 | 0.00 | 73 | 1000.1 |
| 20260509202444 | 87 | 228 | 0.0 | 0.0 | 0.00 | 0.00 | 0.00 | 73 | 1000.1 |
| 20260509202345 | 87 | 228 | 0.0 | 0.0 | 0.00 | 0.00 | 0.00 | 73 | 1000.1 |
| 20260509202244 | 86 | 228 | 0.0 | 0.0 | 0.00 | 0.00 | 0.00 | 72 | 1000.1 |
| 20260509202146 | 86 | 228 | 0.0 | 0.0 | 0.00 | 0.00 | 0.00 | 72 | 1000.2 |
| 20260509202045 | 86 | 228 | 0.0 | 0.0 | 0.00 | 0.00 | 0.00 | 72 | 1000.1 |
| 20260509201945 | 87 | 228 | 0.0 | 0.0 | 0.00 | 0.00 | 0.00 | 73 | 1000.2 |
| 20260509201845 | 87 | 228 | 0.0 | 0.0 | 0.00 | 0.00 | 0.00 | 73 | 1000.2 |
| 20260509201746 | 87 | 228 | 0.0 | 0.0 | 0.00 | 0.00 | 0.00 | 73 | 1000.2 |
| 20260509201645 | 87 | 228 | 0.0 | 0.0 | 0.00 | 0.00 | 0.00 | 73 | 1000.2 |
| 20260509201544 | 87 | 228 | 0.0 | 0.0 | 0.00 | 0.00 | 0.00 | 72 | 1000.2 |
| 20260509201444 | 87 | 228 | 0.0 | 0.0 | 0.00 | 0.00 | 0.00 | 72 | 1000.2 |
| 20260509201345 | 87 | 228 | 0.0 | 0.0 | 0.00 | 0.00 | 0.00 | 75 | 1000.2 |
| 20260509201245 | 87 | 228 | 0.0 | 0.0 | 0.00 | 0.00 | 0.00 | 75 | 1000.2 |
| 20260509201146 | 87 | 228 | 0.0 | 0.0 | 0.00 | 0.00 | 0.00 | 75 | 1000.3 |
| 20260509201042 | 87 | 228 | 0.0 | 0.0 | 0.00 | 0.00 | 0.00 | 72 | 1000.1 |
| 20260509200941 | 86 | 228 | 0.0 | 0.0 | 0.00 | 0.00 | 0.00 | 72 | 1000.2 |
| 20260509200832 | 86 | 227 | 0.0 | 0.0 | 0.00 | 0.00 | 0.00 | 72 | 1000.2 |
| 20260509200731 | 87 | 227 | 0.0 | 0.0 | 0.00 | 0.00 | 0.00 | 74 | 1000.2 |
| 20260509200633 | 87 | 227 | 0.0 | 0.0 | 0.00 | 0.00 | 0.00 | 74 | 1000.2 |
| 20260509200531 | 87 | 227 | 0.0 | 0.0 | 0.00 | 0.00 | 0.00 | 74 | 1000.2 |
| 20260509200429 | 87 | 227 | 0.0 | 0.0 | 0.00 | 0.00 | 0.00 | 72 | 1000.2 |
| 20260509200331 | 87 | 227 | 0.0 | 0.0 | 0.00 | 0.00 | 0.00 | 72 | 1000.3 |
| 20260509200227 | 87 | 227 | 0.0 | 0.0 | 0.00 | 0.00 | 0.00 | 73 | 1000.2 |
| 20260509200122 | 87 | 227 | 0.0 | 0.0 | 0.00 | 0.00 | 0.00 | 73 | 1000.3 |
| 20260509200023 | 87 | 227 | 0.0 | 0.0 | 0.00 | 0.00 | 0.00 | 73 | 1000.3 |
| 20260509195916 | 87 | 227 | 0.0 | 0.0 | 0.00 | 0.00 | 0.00 | 73 | 1000.3 |
| 20260509195814 | 87 | 227 | 0.0 | 0.0 | 0.00 | 0.00 | 0.00 | 73 | 1000.2 |
| 20260509195704 | 87 | 227 | 0.0 | 0.0 | 0.00 | 0.00 | 0.00 | 73 | 1000.3 |
| 20260509195604 | 88 | 227 | 0.0 | 0.0 | 0.00 | 0.00 | 0.00 | 71 | 1000.3 |
| 20260509195504 | 88 | 227 | 0.0 | 0.0 | 0.00 | 0.00 | 0.00 | 71 | 1000.3 |
| 20260509195403 | 88 | 227 | 0.0 | 0.0 | 0.00 | 0.00 | 0.00 | 70 | 1000.3 |
| 20260509195306 | 87 | 227 | 0.0 | 0.0 | 0.00 | 0.00 | 0.00 | 69 | 1000.3 |
| 20260509195203 | 87 | 195 | 0.0 | 0.0 | 0.00 | 0.00 | 0.00 | 69 | 1000.3 |
| 20260509195104 | 87 | 195 | 0.0 | 0.0 | 0.00 | 0.00 | 0.00 | 69 | 1000.3 |
| 20260509195003 | 87 | 195 | 0.0 | 0.0 | 0.00 | 0.00 | 0.00 | 68 | 1000.3 |
| 20260509194902 | 87 | 195 | 0.0 | 0.0 | 0.00 | 0.00 | 0.00 | 68 | 1000.3 |
| 20260509194802 | 88 | 195 | 0.0 | 0.0 | 0.00 | 0.00 | 0.00 | 69 | 1000.2 |
| 20260509194704 | 88 | 195 | 0.0 | 0.0 | 0.00 | 0.00 | 0.00 | 69 | 1000.3 |
| 20260509194558 | 88 | 195 | 0.0 | 0.0 | 0.00 | 0.00 | 0.00 | 69 | 1000.3 |
| 20260509194452 | 88 | 195 | 0.0 | 0.0 | 0.00 | 0.00 | 0.00 | 69 | 1000.2 |
| 20260509194346 | 88 | 195 | 0.0 | 0.0 | 0.00 | 0.00 | 0.00 | 71 | 1000.3 |
| 20260509194245 | 88 | 190 | 0.0 | 0.0 | 0.00 | 0.00 | 0.00 | 71 | 1000.3 |
| 20260509194151 | 88 | 190 | 0.0 | 0.0 | 0.00 | 0.00 | 0.00 | 71 | 1000.3 |
| 20260509194045 | 88 | 193 | 0.0 | 0.0 | 0.00 | 0.00 | 0.00 | 73 | 1000.3 |
| 20260509193945 | 88 | 193 | 0.0 | 0.0 | 0.00 | 0.00 | 0.00 | 73 | 1000.3 |
| 20260509193845 | 87 | 193 | 0.0 | 0.0 | 0.00 | 0.00 | 0.00 | 71 | 1000.4 |
| 20260509193744 | 87 | 192 | 0.0 | 0.0 | 0.00 | 0.00 | 0.00 | 71 | 1000.4 |
| 20260509193644 | 88 | 193 | 0.0 | 0.0 | 0.00 | 0.00 | 0.00 | 71 | 1000.4 |
| 20260509193544 | 88 | 193 | 0.0 | 0.0 | 0.00 | 0.00 | 0.00 | 71 | 1000.4 |
| 20260509193443 | 88 | 192 | 0.0 | 0.0 | 0.00 | 0.00 | 0.00 | 71 | 1000.5 |
| 20260509193343 | 88 | 195 | 0.0 | 0.0 | 0.00 | 0.00 | 0.00 | 71 | 1000.4 |
| 20260509193245 | 88 | 195 | 0.0 | 0.0 | 0.00 | 0.00 | 0.00 | 71 | 1000.5 |
| 20260509193145 | 88 | 196 | 0.0 | 0.0 | 0.00 | 0.00 | 0.00 | 70 | 1000.4 |
| 20260509193043 | 88 | 196 | 0.0 | 0.0 | 0.00 | 0.00 | 0.00 | 70 | 1000.6 |
| 20260509192943 | 88 | 196 | 0.0 | 0.0 | 0.00 | 0.00 | 0.00 | 73 | 1000.6 |
| 20260509192843 | 88 | 196 | 0.0 | 0.0 | 0.00 | 0.00 | 0.00 | 71 | 1000.6 |
| 20260509192743 | 88 | 195 | 0.0 | 0.0 | 0.00 | 0.00 | 0.00 | 71 | 1000.6 |
| 20260509192643 | 88 | 214 | 0.0 | 0.0 | 0.00 | 0.00 | 0.00 | 71 | 1000.7 |
| 20260509192543 | 87 | 214 | 0.0 | 0.0 | 0.00 | 0.00 | 0.00 | 71 | 1000.7 |
| 20260509192443 | 87 | 214 | 0.0 | 0.0 | 0.00 | 0.00 | 0.00 | 71 | 1000.7 |
| 20260509192345 | 87 | 214 | 0.0 | 0.0 | 0.00 | 0.00 | 0.00 | 71 | 1000.7 |
| 20260509192243 | 87 | 214 | 0.0 | 0.0 | 0.00 | 0.00 | 0.00 | 70 | 1000.8 |
| 20260509192148 | 87 | 214 | 0.0 | 0.0 | 0.00 | 0.00 | 0.00 | 72 | 1000.8 |
| 20260509192043 | 88 | 214 | 0.0 | 0.0 | 0.00 | 0.00 | 0.00 | 72 | 1000.8 |
| 20260509191944 | 88 | 213 | 0.0 | 0.0 | 0.00 | 0.00 | 0.00 | 72 | 1000.8 |
| 20260509191844 | 88 | 213 | 0.0 | 0.0 | 0.00 | 0.00 | 0.00 | 73 | 1000.8 |
| 20260509191743 | 88 | 213 | 0.0 | 0.0 | 0.00 | 0.00 | 0.00 | 72 | 1000.9 |
| 20260509191643 | 88 | 213 | 0.0 | 0.0 | 0.00 | 0.00 | 0.00 | 71 | 1000.8 |
| 20260509191544 | 88 | 213 | 0.0 | 0.0 | 0.00 | 0.00 | 0.00 | 71 | 1000.9 |
| 20260509191443 | 87 | 213 | 0.0 | 0.0 | 0.00 | 0.00 | 0.00 | 71 | 1000.9 |
| 20260509191343 | 87 | 213 | 0.0 | 0.0 | 0.00 | 0.00 | 0.00 | 71 | 1000.9 |
| 20260509191243 | 87 | 213 | 0.0 | 0.0 | 0.00 | 0.00 | 0.00 | 71 | 1000.8 |
| 20260509191145 | 87 | 213 | 0.0 | 0.0 | 0.00 | 0.00 | 0.00 | 72 | 1000.9 |
| 20260509191043 | 87 | 213 | 0.0 | 0.0 | 0.00 | 0.00 | 0.00 | 73 | 1000.8 |
| 20260509190943 | 87 | 213 | 0.0 | 0.0 | 0.00 | 0.00 | 0.00 | 73 | 1000.8 |
| 20260509190844 | 87 | 213 | 0.0 | 0.0 | 0.00 | 0.00 | 0.00 | 73 | 1000.8 |
| 20260509190743 | 87 | 213 | 0.0 | 0.0 | 0.00 | 0.00 | 0.00 | 73 | 1000.8 |
| 20260509190642 | 87 | 190 | 0.0 | 0.0 | 0.00 | 0.00 | 0.00 | 73 | 1000.8 |
| 20260509190543 | 87 | 193 | 0.0 | 0.0 | 0.00 | 0.00 | 0.00 | 73 | 1000.8 |
| 20260509190443 | 87 | 193 | 0.0 | 0.0 | 0.00 | 0.00 | 0.00 | 73 | 1000.8 |
| 20260509190344 | 87 | 183 | 0.0 | 0.0 | 0.00 | 0.00 | 0.00 | 73 | 1000.8 |
| 20260509190244 | 86 | 183 | 0.0 | 0.0 | 0.00 | 0.00 | 0.00 | 73 | 1000.8 |
| 20260509190143 | 86 | 183 | 0.0 | 0.0 | 0.00 | 0.00 | 0.00 | 75 | 1000.8 |
| 20260509190044 | 86 | 183 | 0.0 | 0.0 | 0.00 | 0.00 | 0.00 | 75 | 1000.8 |
| 20260509185943 | 86 | 183 | 0.0 | 0.0 | 0.00 | 0.00 | 0.00 | 75 | 1000.8 |
| 20260509185842 | 86 | 183 | 0.0 | 0.0 | 0.00 | 0.00 | 0.00 | 75 | 1000.9 |
| 20260509185741 | 86 | 183 | 0.0 | 0.0 | 0.00 | 0.00 | 0.00 | 75 | 1000.9 |
| 20260509185637 | 86 | 183 | 0.0 | 0.0 | 0.00 | 0.00 | 0.00 | 73 | 1000.9 |
| 20260509185534 | 86 | 183 | 0.0 | 0.0 | 0.00 | 0.00 | 0.00 | 73 | 1001.0 |
| 20260509185431 | 86 | 183 | 0.0 | 0.0 | 0.00 | 0.00 | 0.00 | 73 | 1001.1 |
| 20260509185331 | 86 | 196 | 0.0 | 0.0 | 0.00 | 0.00 | 0.00 | 73 | 1001.0 |
| 20260509185231 | 86 | 195 | 0.0 | 0.0 | 0.00 | 0.00 | 0.00 | 73 | 1001.1 |
| 20260509185132 | 86 | 151 | 0.0 | 0.0 | 0.00 | 0.00 | 0.00 | 73 | 1001.2 |
| 20260509185034 | 87 | 182 | 0.0 | 0.0 | 0.00 | 0.00 | 0.00 | 74 | 1001.1 |
| 20260509184930 | 86 | 182 | 0.0 | 0.0 | 0.00 | 0.00 | 0.00 | 74 | 1001.2 |
| 20260509184833 | 86 | 182 | 0.0 | 0.0 | 0.00 | 0.00 | 0.00 | 77 | 1001.3 |
| 20260509184731 | 86 | 182 | 0.0 | 0.0 | 0.00 | 0.00 | 0.00 | 77 | 1001.2 |
| 20260509184633 | 86 | 182 | 0.0 | 0.0 | 0.00 | 0.00 | 0.00 | 77 | 1001.2 |
| 20260509184533 | 86 | 182 | 0.0 | 0.0 | 0.00 | 0.00 | 0.00 | 77 | 1001.2 |
| 20260509184430 | 86 | 182 | 0.0 | 0.0 | 0.00 | 0.00 | 0.00 | 77 | 1001.2 |
| 20260509184331 | 85 | 182 | 0.0 | 0.0 | 0.00 | 0.00 | 0.00 | 75 | 1001.2 |
| 20260509184230 | 85 | 182 | 0.0 | 0.0 | 0.00 | 0.00 | 0.00 | 74 | 1001.2 |
| 20260509184137 | 84 | 182 | 0.0 | 0.0 | 0.00 | 0.00 | 0.00 | 76 | 1001.2 |
| 20260509184032 | 84 | 200 | 0.0 | 0.0 | 0.00 | 0.00 | 0.00 | 76 | 1001.3 |
| 20260509183931 | 84 | 200 | 0.0 | 0.0 | 0.00 | 0.00 | 0.00 | 76 | 1001.3 |
| 20260509183831 | 84 | 200 | 0.0 | 0.0 | 0.00 | 0.00 | 0.00 | 76 | 1001.3 |
| 20260509183732 | 84 | 200 | 0.0 | 0.0 | 0.00 | 0.00 | 0.00 | 76 | 1001.3 |
| 20260509183631 | 84 | 200 | 0.0 | 0.0 | 0.00 | 0.00 | 0.00 | 76 | 1001.4 |
| 20260509183532 | 84 | 200 | 0.0 | 0.0 | 0.00 | 0.00 | 0.00 | 76 | 1001.3 |
| 20260509183431 | 84 | 200 | 0.0 | 0.0 | 0.00 | 0.00 | 0.00 | 77 | 1001.3 |
| 20260509183331 | 84 | 200 | 0.0 | 0.0 | 0.00 | 0.00 | 0.00 | 77 | 1001.4 |
| 20260509183233 | 84 | 200 | 0.0 | 0.0 | 0.00 | 0.00 | 0.00 | 77 | 1001.4 |
| 20260509183133 | 84 | 200 | 0.0 | 0.0 | 0.00 | 0.00 | 0.00 | 76 | 1001.3 |
| 20260509183032 | 84 | 200 | 0.0 | 0.0 | 0.00 | 0.00 | 0.00 | 76 | 1001.3 |
| 20260509182932 | 84 | 200 | 0.0 | 0.0 | 0.00 | 0.00 | 0.00 | 76 | 1001.3 |
| 20260509182832 | 85 | 200 | 0.0 | 0.0 | 0.00 | 0.00 | 0.00 | 76 | 1001.3 |
| 20260509182732 | 84 | 200 | 0.0 | 0.0 | 0.00 | 0.00 | 0.00 | 75 | 1001.3 |
| 20260509182631 | 85 | 200 | 0.0 | 0.0 | 0.00 | 0.00 | 0.00 | 74 | 1001.3 |
| 20260509182533 | 85 | 200 | 0.0 | 0.0 | 0.00 | 0.00 | 0.00 | 74 | 1001.3 |
| 20260509182433 | 85 | 200 | 0.0 | 0.0 | 0.00 | 0.00 | 0.00 | 76 | 1001.3 |
| 20260509182314 | 85 | 148 | 0.0 | 0.0 | 0.00 | 0.00 | 0.00 | 76 | 1001.3 |
| 20260509182215 | 85 | 148 | 0.0 | 0.0 | 0.00 | 0.00 | 0.00 | 76 | 1001.4 |
| 20260509182119 | 85 | 148 | 0.0 | 0.0 | 0.00 | 0.00 | 0.00 | 76 | 1001.4 |
| 20260509182011 | 85 | 148 | 0.0 | 0.0 | 0.00 | 0.00 | 0.00 | 77 | 1001.5 |
| 20260509181907 | 84 | 148 | 0.0 | 0.0 | 0.00 | 0.00 | 0.00 | 76 | 1001.5 |
| 20260509181804 | 84 | 148 | 0.0 | 0.0 | 0.00 | 0.00 | 0.00 | 76 | 1001.5 |
| 20260509181704 | 84 | 137 | 0.0 | 0.0 | 0.00 | 0.00 | 0.00 | 76 | 1001.6 |
| 20260509181603 | 84 | 137 | 0.0 | 0.0 | 0.00 | 0.00 | 0.00 | 78 | 1001.6 |
| 20260509181504 | 84 | 137 | 0.0 | 0.0 | 0.00 | 0.00 | 0.00 | 78 | 1001.7 |
| 20260509181402 | 84 | 137 | 0.0 | 0.0 | 0.00 | 0.00 | 0.00 | 78 | 1001.6 |
| 20260509181302 | 84 | 137 | 0.0 | 0.0 | 0.00 | 0.00 | 0.00 | 78 | 1001.7 |
| 20260509181202 | 84 | 137 | 0.0 | 0.0 | 0.00 | 0.00 | 0.00 | 76 | 1001.7 |
| 20260509181102 | 84 | 137 | 0.0 | 0.0 | 0.00 | 0.00 | 0.00 | 75 | 1001.6 |
| 20260509181004 | 84 | 137 | 0.0 | 0.0 | 0.00 | 0.00 | 0.00 | 75 | 1001.7 |
| 20260509180903 | 84 | 137 | 0.0 | 0.0 | 0.00 | 0.00 | 0.00 | 75 | 1001.6 |
| 20260509180804 | 84 | 137 | 0.0 | 0.0 | 0.00 | 0.00 | 0.00 | 74 | 1001.7 |
| 20260509180705 | 84 | 137 | 0.0 | 0.0 | 0.00 | 0.00 | 0.00 | 74 | 1001.8 |
| 20260509180559 | 84 | 137 | 0.0 | 0.0 | 0.00 | 0.00 | 0.00 | 74 | 1001.8 |
| 20260509180454 | 85 | 149 | 0.0 | 0.0 | 0.00 | 0.00 | 0.00 | 74 | 1001.9 |
| 20260509180354 | 85 | 151 | 0.0 | 0.0 | 0.00 | 0.00 | 0.00 | 74 | 1001.7 |
| 20260509180249 | 84 | 151 | 0.0 | 0.0 | 0.00 | 0.00 | 0.00 | 74 | 1001.8 |
| 20260509180142 | 84 | 151 | 0.0 | 0.0 | 0.00 | 0.00 | 0.00 | 74 | 1001.8 |
| 20260509180043 | 84 | 154 | 0.0 | 0.0 | 0.00 | 0.00 | 0.00 | 74 | 1001.9 |
| 20260509175943 | 84 | 154 | 0.0 | 0.0 | 0.00 | 0.00 | 0.00 | 76 | 1001.8 |
| 20260509175843 | 85 | 154 | 0.0 | 0.0 | 0.00 | 0.00 | 0.00 | 75 | 1001.8 |
| 20260509175742 | 85 | 154 | 0.0 | 0.0 | 0.00 | 0.00 | 0.00 | 75 | 1001.8 |
| 20260509175643 | 85 | 154 | 0.0 | 0.0 | 0.00 | 0.00 | 0.00 | 74 | 1001.9 |
| 20260509175543 | 85 | 154 | 0.0 | 0.0 | 0.00 | 0.00 | 0.00 | 76 | 1001.9 |
| 20260509175442 | 85 | 154 | 0.0 | 0.0 | 0.00 | 0.00 | 0.00 | 76 | 1001.9 |
| 20260509175342 | 85 | 157 | 0.0 | 0.0 | 0.00 | 0.00 | 0.00 | 76 | 1001.9 |
| 20260509175243 | 84 | 251 | 0.0 | 0.0 | 0.00 | 0.00 | 0.00 | 75 | 1001.9 |
| 20260509175142 | 84 | 251 | 0.0 | 0.0 | 0.00 | 0.00 | 0.00 | 74 | 1001.9 |
| 20260509175042 | 84 | 203 | 0.0 | 0.0 | 0.00 | 0.00 | 0.00 | 75 | 1001.9 |
| 20260509174941 | 84 | 169 | 0.0 | 0.0 | 0.00 | 0.00 | 0.00 | 74 | 1001.9 |
| 20260509174843 | 84 | 166 | 0.0 | 0.0 | 0.00 | 0.00 | 0.00 | 74 | 1001.9 |
| 20260509174742 | 84 | 199 | 0.0 | 0.0 | 0.00 | 0.00 | 0.00 | 74 | 1001.9 |
| 20260509174645 | 84 | 199 | 0.0 | 0.0 | 0.00 | 0.00 | 0.00 | 74 | 1002.0 |
| 20260509174537 | 84 | 199 | 0.0 | 0.0 | 0.00 | 0.00 | 0.00 | 74 | 1002.0 |
| 20260509174434 | 85 | 199 | 0.0 | 0.0 | 0.00 | 0.00 | 0.00 | 75 | 1002.0 |
| 20260509174334 | 85 | 199 | 0.0 | 0.0 | 0.00 | 0.00 | 0.00 | 75 | 1002.0 |
| 20260509174233 | 85 | 199 | 0.0 | 0.0 | 0.00 | 0.00 | 0.00 | 74 | 1002.0 |